GEFSGL_500_meanwind_000.txt.gz
Wind_Speed
38 37 37 37 36 37 37 37 38 39 39 40 41 42 42 38 32 27 25 24 22 20 20 21 22 22 27 30 30 32 34 32 31 24 15 15 18 21 25 28 28 27 28
39 37 38 37 35 33 33 34 34 33 34 37 37 37 35 32 30 26 19 20 21 20 23 24 25 27 31 32 30 28 26 23 16 11 12 16 19 20 21 24 25 26 27
37 37 38 37 35 31 30 30 30 30 30 32 33 32 31 27 28 23 21 21 20 18 19 16 16 19 27 26 24 20 17 13 11 16 17 18 21 24 25 25 24 24 25
34 35 36 36 35 31 29 29 29 28 24 24 25 25 22 18 20 22 23 22 21 23 22 17 15 19 18 18 17 15 14 16 19 21 22 23 24 25 25 25 26 26 27
33 32 33 34 35 31 28 28 26 21 18 18 20 17 17 18 16 16 21 23 23 22 18 15 14 15 12 11 14 15 16 18 21 23 23 23 23 24 25 26 28 29 31
37 32 30 33 35 31 27 26 22 18 16 13 15 12 11 12 14 15 17 16 18 18 15 14 14 14 12 12 13 15 16 17 18 20 22 21 22 24 26 28 29 30 32
38 35 31 33 35 32 27 25 24 20 14 11 14 13 12 10 7 8 11 16 17 17 16 16 15 13 14 13 13 14 15 15 15 17 19 20 21 23 24 24 25 27 28
39 37 31 31 32 32 28 24 24 21 18 13 13 14 15 13 10 10 12 14 17 18 18 15 15 15 16 15 14 15 14 12 12 13 15 15 15 17 19 24 28 31 34
40 38 32 32 30 31 28 24 23 22 20 15 16 16 17 17 14 12 13 15 15 16 17 17 15 14 13 13 13 12 11 11 10 9 11 14 17 20 23 26 30 33 35
44 40 37 34 31 31 29 26 23 22 21 18 18 19 21 23 21 15 11 10 10 12 12 11 10 10 10 10 10 10 10 9 9 11 13 17 20 24 27 31 34 35 36
50 46 41 39 35 30 28 28 26 21 19 18 18 20 20 22 20 18 15 13 11 10 11 12 13 11 10 10 10 11 11 11 10 10 13 18 23 26 28 29 30 31 31
54 47 40 38 34 27 28 29 28 21 19 17 15 16 15 13 15 18 20 15 9 8 11 14 15 13 11 10 11 12 11 10 9 12 16 20 23 24 26 29 30 29 27
55 52 46 38 35 31 33 31 30 23 18 15 12 11 9 7 8 12 15 16 12 11 11 12 12 14 13 11 11 11 10 9 10 12 15 20 24 26 27 26 26 25 22
54 50 46 45 35 34 36 34 30 24 20 18 14 12 12 10 10 12 13 15 14 13 11 12 13 14 13 11 10 10 9 9 9 11 15 19 23 26 25 23 23 21 19
56 54 47 41 38 35 35 35 32 26 23 23 19 16 14 13 12 13 14 15 15 15 15 13 11 11 11 10 9 9 10 9 10 12 13 16 21 24 24 23 22 21 20
57 51 50 50 43 38 38 36 35 30 26 25 22 20 17 15 14 15 14 15 16 17 15 13 13 14 13 11 9 10 11 10 12 14 12 13 18 22 23 24 25 25 25
54 55 55 57 48 38 36 36 34 32 29 28 25 23 21 18 15 14 14 15 17 18 16 15 14 14 12 11 11 11 11 11 13 15 11 11 15 19 20 23 26 26 26
48 48 48 54 46 38 37 37 36 33 31 30 28 26 24 20 16 14 13 14 14 13 13 12 12 11 11 11 12 11 11 12 13 12 9 8 12 16 18 22 25 28 30
43 41 38 41 44 43 41 39 37 34 32 30 29 28 25 22 18 15 14 14 13 12 12 11 11 11 11 12 13 12 13 13 12 12 9 5 8 12 17 22 26 28 30
41 42 39 41 46 46 40 40 39 36 31 28 26 26 25 23 20 18 16 15 14 13 13 13 13 13 13 13 14 14 14 15 15 14 12 8 6 10 16 24 28 28 28
41 41 42 46 44 43 39 40 40 36 30 28 27 27 26 25 24 23 19 16 16 16 16 15 14 14 14 13 14 16 17 16 15 16 17 15 14 14 19 24 24 25 28
40 41 43 43 41 40 40 40 41 37 31 30 29 29 29 28 27 24 20 18 17 18 18 16 15 15 14 14 15 16 17 17 17 17 19 19 20 20 21 21 22 26 29
36 35 38 40 40 41 39 38 39 38 32 29 26 24 24 24 23 20 18 17 18 18 18 17 16 15 14 15 15 15 17 19 19 18 20 20 20 21 20 20 24 27 30
33 34 33 33 36 41 40 36 35 35 32 28 23 22 23 21 18 16 14 15 16 16 17 16 16 15 15 15 14 16 19 21 21 20 22 22 21 20 19 20 23 26 30
37 37 36 35 37 39 38 37 35 35 33 28 21 21 22 19 15 14 15 15 15 15 16 16 16 15 14 14 15 17 19 21 21 21 20 21 21 20 19 20 23 27 30
41 41 38 34 34 33 31 33 36 36 35 31 25 20 19 16 14 15 15 14 13 14 15 16 15 14 14 15 16 18 21 23 23 19 17 18 19 20 21 22 25 29 32

GEFSGL_500_meanwind_006.txt.gz
Wind_Speed
34 35 38 40 42 40 39 38 37 38 40 40 38 34 33 32 31 30 30 31 33 34 35 34 33 32 32 31 28 27 26 25 24 22 22 22 24 26 26 26 26 25 24
40 40 41 41 42 43 41 39 38 38 39 40 37 34 31 29 28 27 27 28 29 30 28 27 25 25 25 26 27 27 27 26 24 23 22 23 24 25 24 22 21 20 20
50 46 44 43 42 42 41 39 38 38 38 38 37 35 32 28 25 24 23 23 24 23 23 22 23 25 25 26 27 28 27 25 24 23 22 21 21 20 18 18 18 18 19
58 54 49 45 42 41 41 40 40 39 38 37 35 34 32 29 25 23 21 19 19 19 21 22 24 26 27 28 28 28 26 23 22 21 20 18 16 16 16 16 18 19 20
61 59 55 50 45 44 44 44 43 41 40 37 34 33 31 28 24 21 19 17 17 19 20 22 24 25 25 26 25 25 24 21 19 18 18 17 16 16 16 16 17 17 19
62 61 59 55 51 50 49 48 46 44 41 38 33 32 29 26 22 19 17 15 17 20 21 21 23 23 22 19 17 17 17 17 18 18 17 17 16 15 14 14 15 17 19
69 68 65 62 59 56 52 48 46 45 42 39 33 30 28 25 22 18 17 15 16 19 21 22 20 19 18 17 16 17 17 18 17 16 15 13 12 11 12 13 15 16 18
75 73 70 66 62 57 52 47 46 45 42 39 34 30 28 25 22 20 18 17 16 17 19 19 18 17 16 16 17 17 17 16 14 12 11 10 9 9 10 11 13 15 17
79 76 72 68 62 55 50 47 46 45 42 39 34 30 28 26 23 20 19 19 19 18 17 17 17 17 17 17 16 16 15 13 11 11 10 9 8 8 9 11 13 15 17
75 71 66 62 56 51 47 46 47 46 43 40 36 31 29 27 24 22 21 21 19 18 17 17 17 18 17 17 17 16 14 13 12 11 11 9 8 8 9 10 11 13 15
61 56 51 48 46 44 44 45 46 45 44 42 39 33 30 28 26 23 22 21 18 16 15 15 16 18 18 17 16 15 15 14 14 13 12 10 8 7 7 9 11 14 15
43 40 39 40 40 40 41 42 45 47 45 43 41 36 32 29 27 24 22 19 18 16 14 13 15 17 18 16 15 14 15 15 14 13 12 10 8 5 6 9 11 12 13
35 34 35 38 41 42 43 44 46 50 47 42 41 37 32 29 27 23 19 18 19 18 15 14 15 17 16 14 14 14 15 15 14 13 11 9 7 6 8 9 9 11 13
35 35 37 39 42 43 45 45 47 52 51 43 41 38 33 29 26 21 17 17 20 19 17 16 16 16 15 13 14 14 14 15 14 12 10 9 8 8 9 8 8 9 11
38 37 39 40 40 40 40 41 47 54 54 47 42 37 32 28 25 22 19 20 22 21 19 16 14 14 14 15 15 13 13 12 12 11 10 10 9 9 9 9 7 7 10
42 39 38 37 37 35 32 34 45 53 56 48 42 37 33 31 28 24 22 22 23 22 19 16 14 13 13 13 12 12 12 13 13 13 12 12 10 9 9 8 7 8 11
43 39 36 35 32 29 24 28 42 51 51 48 44 39 35 32 28 26 24 23 22 21 19 16 15 14 13 12 11 11 13 14 15 14 13 12 9 8 8 7 7 9 11
37 34 32 30 27 20 18 28 41 44 46 48 44 41 37 33 30 27 24 22 20 19 18 17 16 16 14 13 12 12 14 15 15 15 14 12 10 9 9 9 8 10 12
29 27 25 24 20 17 22 32 37 42 47 47 43 40 36 34 32 28 24 21 19 18 17 17 17 16 15 14 14 14 14 15 16 15 15 14 13 13 13 13 14 15 16
22 22 21 19 17 20 28 33 36 44 47 46 42 38 34 32 29 25 22 20 17 15 14 14 14 14 14 13 13 14 14 15 17 17 17 17 17 18 18 18 19 20 20
19 19 19 18 19 25 29 33 40 45 46 44 39 34 31 29 28 26 23 20 17 15 13 12 12 12 13 13 13 14 16 17 18 19 19 19 20 20 21 22 23 23 23
17 18 19 20 24 28 31 35 40 43 44 41 37 33 31 31 30 27 24 20 17 15 13 12 12 13 14 15 15 16 18 19 20 20 20 20 21 21 23 23 23 22 22
17 19 21 24 29 32 33 35 39 41 41 38 35 31 29 29 28 27 24 21 18 15 14 14 14 15 16 17 17 17 18 20 21 21 20 20 21 22 24 24 23 22 21
19 22 25 30 33 34 33 34 36 38 39 37 33 29 27 27 27 25 23 20 17 16 15 16 16 17 18 18 19 18 19 19 19 19 20 20 21 22 24 24 23 22 22
24 28 33 35 35 33 33 34 34 36 36 34 30 27 26 25 23 21 19 17 16 15 16 17 17 18 18 19 18 18 17 17 18 18 19 20 21 22 22 22 22 21 21
34 36 36 35 33 31 30 30 31 33 33 30 27 24 22 20 19 18 17 16 14 15 15 16 16 16 15 15 15 15 15 15 16 17 18 19 20 21 21 21 21 21 21

GEFSGL_500_meanwind_012.txt.gz
Wind_Speed
51 51 50 48 46 44 43 41 40 38 35 32 30 28 28 28 28 30 32 33 32 29 27 26 26 28 30 32 34 35 36 37 36 36 35 34 34 33 31 30 30 30 29
56 56 56 55 52 50 48 45 43 41 38 34 32 31 31 30 30 31 32 33 32 30 28 27 26 26 28 30 32 33 34 34 35 35 35 34 32 30 29 27 28 28 27
61 62 61 61 59 56 54 52 48 44 40 37 35 33 33 33 33 33 34 33 33 31 29 27 26 24 25 26 28 28 29 31 32 32 32 32 31 29 28 27 26 26 27
66 67 67 67 67 64 62 59 54 48 43 40 38 37 37 36 36 35 35 35 33 30 28 27 24 22 21 21 23 23 24 25 26 28 29 30 29 27 26 26 26 25 23
74 76 76 76 75 71 66 61 58 53 48 44 42 41 41 40 39 37 36 35 33 30 27 25 22 19 18 18 19 20 23 25 26 28 29 29 29 27 25 25 23 20 18
78 79 78 75 74 73 69 65 62 58 54 50 47 46 44 43 42 40 37 36 33 30 26 23 20 19 17 18 19 20 23 27 29 31 32 30 29 25 24 22 20 18 16
86 87 87 86 84 83 81 78 74 68 62 57 54 51 49 46 44 41 37 35 33 30 26 23 20 19 18 18 19 21 23 25 29 32 32 29 26 23 21 19 18 17 16
84 87 89 90 89 86 84 82 78 73 67 62 56 52 49 47 44 40 38 36 33 30 27 24 21 20 19 19 20 21 23 25 27 29 28 24 21 19 18 18 17 16 15
55 59 62 66 69 69 69 70 69 67 65 62 58 53 49 47 44 40 39 37 34 31 29 25 23 21 20 20 20 21 22 23 24 23 21 20 19 18 17 16 15 14 13
41 42 42 42 43 44 47 51 54 57 58 56 54 51 48 45 43 41 39 38 35 32 30 27 24 22 21 20 20 21 21 21 21 20 19 18 18 17 16 14 13 12 11
44 43 41 38 36 34 34 36 41 46 50 52 52 50 48 45 44 43 41 38 36 33 31 29 25 23 21 21 21 22 22 21 21 20 19 19 18 16 15 13 11 10 10
48 46 43 39 34 30 28 29 31 35 41 47 51 53 52 49 46 45 42 38 36 34 31 28 25 23 22 22 23 23 23 23 22 21 20 18 17 16 14 13 11 10 9
50 48 45 42 37 32 27 26 27 28 31 36 45 53 56 52 49 48 45 40 37 34 31 28 24 22 22 24 24 24 24 23 22 21 19 18 16 15 14 13 12 11 10
51 48 45 42 39 35 30 26 24 24 25 28 33 45 55 53 49 47 46 42 36 32 30 27 24 22 22 24 25 25 24 24 22 20 19 17 16 14 13 13 12 12 12
48 46 45 43 40 37 32 28 25 24 24 26 29 37 47 47 45 43 42 39 34 30 28 26 24 22 22 23 22 22 22 22 21 19 17 16 15 14 14 13 13 14 14
44 41 40 41 40 38 34 30 27 26 26 27 30 33 38 40 39 39 38 37 33 30 28 27 25 24 23 23 22 21 21 20 19 18 17 16 15 15 15 15 15 16 17
37 33 32 35 36 36 33 31 29 28 29 30 32 34 34 35 35 37 36 35 32 29 28 28 27 26 25 24 22 21 20 20 19 18 18 17 17 16 16 17 18 19 20
28 25 25 28 31 32 31 30 29 29 30 33 35 36 35 34 35 37 37 36 32 30 30 30 29 28 27 25 23 22 21 20 20 19 19 18 18 17 18 19 20 21 22
19 16 17 21 25 26 27 27 28 29 30 33 36 38 38 38 38 39 39 36 32 31 31 31 29 28 27 25 24 23 21 20 20 20 19 18 18 19 20 21 22 24 24
7 8 13 18 21 22 23 24 24 25 28 31 35 39 40 42 41 41 39 35 34 34 33 31 29 27 26 25 23 21 20 20 20 20 19 19 19 19 20 22 24 25 26
3 9 13 17 19 19 19 19 21 22 25 30 35 40 42 42 40 38 35 33 33 33 32 30 28 26 25 23 22 20 19 19 19 19 19 19 19 20 21 22 24 25 25
9 13 16 17 17 17 17 18 20 23 27 33 39 41 42 40 38 36 33 33 32 32 30 29 27 26 25 23 22 20 19 18 18 18 18 18 18 19 20 21 21 22 22
16 18 18 19 20 21 22 24 26 29 34 39 42 42 41 40 37 35 34 33 31 30 28 26 25 24 23 22 20 19 18 17 17 17 17 17 17 18 18 18 19 20 21
22 23 25 26 27 28 30 31 33 36 39 41 41 40 38 37 36 34 33 31 29 27 26 24 23 22 21 20 18 18 17 16 15 15 16 16 16 16 16 17 18 19 20
29 30 32 33 35 35 35 36 37 39 40 40 39 37 35 34 33 32 30 28 27 25 23 21 20 19 18 17 16 15 15 15 15 15 15 15 15 15 16 17 18 18 19
35 36 37 37 36 35 35 37 38 38 37 35 34 33 32 32 30 29 27 25 23 21 19 18 17 16 15 14 14 14 13 13 14 14 14 14 15 16 16 17 18 18 19

GEFSGL_500_meanwind_018.txt.gz
Wind_Speed
61 61 61 61 61 61 60 59 58 56 54 52 49 47 44 43 43 41 39 38 36 35 33 32 30 28 27 26 24 23 22 22 23 25 27 28 28 29 28 28 29 28 28
65 65 66 66 66 66 65 65 64 63 61 57 54 52 50 47 45 44 42 40 39 37 35 33 31 29 28 26 24 23 22 21 21 23 25 27 28 29 29 29 29 29 29
70 70 70 70 69 69 68 67 67 66 64 62 59 56 54 52 50 47 45 42 41 39 37 35 32 29 28 26 24 22 21 20 19 21 24 26 28 29 29 30 30 29 29
76 76 76 75 75 74 73 71 70 69 68 66 64 61 57 54 53 51 49 46 44 42 39 36 33 30 28 26 24 22 20 19 18 20 22 24 26 27 28 29 28 28 27
73 75 77 80 81 80 80 79 78 77 75 72 70 67 64 62 58 56 55 52 49 45 42 37 33 30 28 26 24 21 19 18 18 19 21 23 24 25 25 26 26 25 25
49 48 50 54 60 66 72 76 79 80 81 80 77 75 71 68 65 61 58 55 52 48 43 38 34 31 28 26 23 21 19 18 18 19 21 22 22 23 23 24 24 26 26
35 34 34 34 34 35 39 46 54 62 70 75 78 78 75 72 68 63 59 55 51 48 45 40 36 32 29 26 24 21 19 18 17 18 18 19 20 21 23 23 24 26 25
41 41 41 39 36 34 33 32 33 35 41 49 57 64 68 69 68 66 60 55 51 48 45 42 37 34 31 27 24 21 20 18 18 18 17 18 20 22 24 25 25 25 23
45 45 44 43 41 39 36 34 34 34 34 34 37 43 50 56 61 62 61 57 51 48 43 40 37 35 32 28 25 22 20 19 18 18 18 19 20 22 25 26 25 24 21
49 48 47 46 45 43 42 40 38 37 35 34 32 32 35 42 48 53 55 54 50 48 45 41 38 36 34 31 27 25 22 20 19 19 19 20 21 22 24 24 23 21 18
51 50 49 48 47 46 45 43 40 39 37 35 33 31 30 33 41 47 50 50 49 47 44 42 40 38 36 33 30 27 24 21 20 20 19 19 20 20 21 21 21 19 18
52 51 50 48 48 47 45 43 41 39 38 36 34 32 31 30 34 43 50 52 49 47 46 44 42 39 37 35 32 29 26 23 21 20 19 19 19 18 18 18 18 16 15
52 50 49 47 45 44 42 41 40 38 37 35 34 31 30 30 33 39 47 54 51 47 47 45 43 41 39 36 34 31 27 24 22 20 19 19 19 19 19 18 18 17 16
48 46 44 43 41 39 38 38 37 36 35 33 32 30 29 28 31 36 43 53 52 46 46 45 44 42 40 37 35 31 27 24 22 21 20 20 20 20 19 18 18 17 17
44 42 39 37 35 34 33 33 32 31 31 30 29 28 26 26 27 31 40 50 53 46 45 45 43 40 37 35 33 29 26 24 22 21 21 21 21 20 20 19 19 18 17
37 35 32 31 30 29 28 28 27 27 27 27 26 24 22 22 24 28 37 47 52 46 43 45 42 38 36 33 30 28 26 24 23 23 22 23 22 22 21 20 19 19 17
29 27 25 24 23 23 23 23 23 24 25 25 24 22 20 19 20 25 32 42 50 45 41 42 40 37 34 31 28 27 25 25 24 24 23 23 23 22 21 20 19 18 16
21 20 17 15 14 15 16 18 20 21 22 22 20 18 17 17 18 22 28 37 43 41 38 39 37 35 32 29 27 26 25 25 25 24 24 24 23 22 21 20 19 17 16
18 15 11 7 5 8 12 15 18 19 19 18 16 15 15 16 19 22 27 35 37 37 37 36 35 32 30 27 26 25 25 26 25 25 25 24 22 21 20 19 18 16 16
18 14 10 5 5 9 13 16 19 19 18 17 16 16 17 18 22 25 28 33 35 34 34 33 32 30 28 27 26 26 27 26 25 25 24 22 21 20 19 18 17 16 16
20 17 15 13 12 14 16 18 19 19 18 17 16 17 19 21 24 27 30 33 33 32 31 31 30 29 28 27 28 27 27 26 24 23 21 20 20 19 18 17 16 16 16
23 20 17 15 15 15 16 17 17 17 17 17 17 19 20 23 26 29 32 33 31 30 29 28 27 27 27 28 27 25 24 23 21 20 19 19 18 18 17 16 16 16 18
27 23 19 15 13 12 13 14 16 16 17 19 20 20 21 24 27 30 32 33 30 28 27 26 26 26 26 26 24 22 21 20 19 18 18 18 17 17 16 16 17 18 19
31 28 24 20 17 14 14 15 16 18 19 21 22 23 24 26 28 31 33 31 28 26 25 25 24 23 23 22 21 20 18 17 17 16 17 17 16 16 17 17 18 19 19
37 34 31 27 25 23 22 21 21 23 24 25 26 26 26 27 29 31 30 28 26 26 25 23 22 21 20 19 18 17 16 15 15 16 16 16 16 17 18 18 19 19 20
38 37 36 34 32 31 30 29 29 29 29 28 28 28 29 29 29 28 27 26 25 24 23 21 19 18 16 16 15 14 14 14 15 15 16 17 17 18 19 20 20 21 21

GEFSGL_500_meanwind_024.txt.gz
Wind_Speed
65 63 62 61 60 60 59 59 58 58 57 57 57 58 57 56 54 52 50 48 47 45 43 41 38 36 34 32 30 28 26 24 23 23 22 22 22 23 26 27 26 25 25
74 72 70 68 66 64 63 63 63 63 63 62 62 62 62 61 60 58 56 53 51 49 47 44 41 39 36 34 32 30 29 26 24 23 23 23 22 23 25 26 27 26 26
74 71 66 61 59 58 58 59 61 63 65 67 67 66 66 66 64 63 60 58 56 53 51 48 45 42 39 36 34 32 30 28 25 24 24 23 22 22 24 26 27 27 27
59 54 48 43 41 39 40 43 46 52 58 64 68 70 71 70 69 66 64 61 59 56 54 51 48 45 42 39 36 34 32 30 27 25 24 23 21 20 22 24 25 26 26
48 43 39 36 34 32 32 32 33 35 40 47 55 64 70 73 73 71 68 64 61 58 55 52 50 47 45 42 38 36 33 31 28 26 24 22 20 18 19 21 22 23 24
45 43 41 40 38 37 35 34 33 32 32 33 37 44 53 62 70 73 72 68 64 60 56 53 51 49 46 44 40 37 35 32 29 26 25 23 20 18 18 18 19 21 21
48 46 46 45 44 43 41 39 37 36 36 35 33 34 36 41 51 62 69 70 67 63 58 55 52 49 46 44 42 39 36 33 31 27 25 23 20 19 18 18 18 18 19
52 52 51 51 49 47 46 44 41 40 38 37 35 33 32 32 34 41 53 62 65 64 60 57 53 50 48 45 43 40 37 35 32 28 25 22 21 20 19 19 18 18 19
52 53 53 53 53 51 49 47 45 42 40 39 37 35 33 31 30 30 35 46 55 60 61 58 55 52 49 45 43 41 38 35 33 29 25 23 21 20 19 19 18 18 18
50 50 50 52 52 51 49 47 46 44 42 40 39 38 35 33 30 28 27 32 42 50 56 58 56 53 50 47 43 41 38 36 33 29 26 23 22 21 20 20 18 18 18
46 45 45 46 48 48 48 46 45 44 42 40 39 38 37 35 32 29 26 26 31 40 47 53 53 51 49 47 44 41 39 36 34 30 26 24 23 22 21 19 18 18 18
41 39 38 39 40 41 42 42 42 42 40 39 39 39 38 37 34 31 28 25 27 33 42 48 51 49 48 46 45 42 39 36 34 30 27 25 24 22 21 20 20 19 19
38 35 33 32 32 34 35 36 37 37 37 37 37 37 37 36 34 32 30 26 26 30 38 46 49 49 47 45 45 43 40 36 33 30 27 26 24 22 21 21 20 20 19
35 30 27 25 25 25 27 29 30 31 32 32 33 34 35 34 33 32 31 27 27 29 36 47 49 48 47 46 44 43 40 37 32 30 28 26 23 21 21 21 21 20 20
34 28 24 21 19 19 19 22 24 26 27 28 29 31 32 32 31 31 30 28 27 29 36 49 50 48 48 46 45 43 40 36 32 30 27 25 22 21 21 21 21 21 20
34 28 23 20 15 12 11 12 16 19 22 24 25 27 29 29 29 29 28 27 27 31 36 48 51 49 47 45 44 42 39 35 33 30 28 25 23 22 22 22 22 22 21
35 29 24 19 14 8 2 5 9 13 16 19 21 23 25 27 27 26 25 25 26 29 35 45 49 48 47 46 43 40 37 35 32 30 28 25 24 24 23 23 23 23 23
36 30 25 20 16 11 7 5 7 9 12 15 18 20 21 23 24 23 23 23 24 27 32 41 47 48 48 45 42 40 37 35 32 29 27 26 25 25 24 24 24 24 24
37 32 27 22 18 15 12 10 10 11 11 13 15 16 18 20 21 20 20 20 22 25 28 37 45 46 45 44 41 38 36 34 31 29 27 26 26 25 25 25 25 25 25
36 33 29 25 21 19 17 15 13 11 10 11 12 13 15 18 19 19 19 19 20 23 26 34 41 41 42 40 38 36 34 33 30 28 27 27 26 26 26 26 26 26 25
35 32 29 26 24 22 20 17 15 13 11 11 11 12 14 17 18 19 20 21 22 24 28 33 37 38 38 37 36 33 32 30 29 28 27 27 26 27 27 26 26 26 25
35 30 27 25 23 21 20 19 18 16 15 14 14 14 17 19 19 21 24 26 27 29 30 32 33 33 35 34 32 30 29 28 28 28 27 27 27 27 27 26 26 26 25
36 32 28 25 23 22 21 20 19 18 18 18 19 20 20 22 24 27 29 30 30 30 30 30 30 30 31 31 29 28 28 27 27 27 27 27 27 26 26 26 25 25 25
36 33 30 26 24 23 22 21 21 21 21 22 23 24 26 28 29 30 31 30 30 30 29 28 28 27 27 27 26 26 25 25 26 26 27 26 26 25 25 25 25 25 25
35 32 30 27 25 24 23 23 23 24 25 25 26 28 30 30 30 30 31 30 29 28 27 26 26 25 25 24 24 24 23 23 24 24 24 24 23 23 24 24 24 24 24
33 31 29 27 26 24 24 23 23 23 24 25 27 28 29 29 29 29 28 27 27 26 25 25 24 24 23 23 22 22 21 21 21 21 21 21 22 22 22 22 23 23 24

GEFSGL_500_meanwind_030.txt.gz
Wind_Speed
48 48 48 48 47 47 48 51 56 61 64 66 67 67 67 67 65 63 62 60 59 56 54 53 52 51 49 46 43 40 37 35 32 31 29 27 26 24 22 21 20 19 20
54 54 54 53 51 50 48 48 50 53 58 64 68 70 72 72 71 70 68 66 65 63 60 58 56 54 52 50 47 44 41 38 34 32 30 29 27 25 23 22 21 20 20
58 58 57 55 54 52 50 49 48 49 51 55 61 67 72 75 76 76 74 71 70 68 66 63 60 58 55 53 51 48 44 40 37 34 32 30 28 26 24 23 22 21 20
59 60 60 58 56 53 51 49 47 46 47 48 50 55 62 68 73 77 78 77 74 72 70 67 64 63 59 56 54 50 47 43 40 36 33 31 29 28 25 24 23 21 21
61 61 61 60 57 54 51 49 46 45 45 44 44 45 48 54 60 67 75 78 77 75 74 71 68 65 62 59 56 54 50 46 42 38 35 32 30 28 26 24 23 21 21
61 62 61 60 58 54 50 47 45 45 45 45 44 42 42 43 46 51 59 68 74 77 76 74 70 67 63 59 57 55 52 48 44 41 37 34 31 29 27 25 23 22 21
62 61 60 58 55 52 49 45 44 44 46 47 46 44 42 40 40 40 43 50 59 67 73 75 74 70 67 64 59 56 53 51 47 43 39 36 33 30 28 25 23 21 20
61 61 59 56 53 50 47 44 42 42 44 46 47 46 44 41 39 38 37 37 41 49 58 66 70 72 69 66 62 58 55 52 48 45 41 38 35 32 29 26 23 21 20
61 60 57 55 51 47 43 40 38 38 39 43 46 46 45 42 40 39 37 36 34 36 42 50 58 64 66 66 63 59 55 51 48 45 43 40 37 34 30 26 23 21 21
59 57 55 51 46 41 36 34 33 33 35 37 41 43 43 42 41 39 38 36 34 33 34 39 46 53 59 62 62 59 57 53 49 46 44 41 38 34 31 27 24 22 22
57 55 52 48 43 37 32 28 27 27 31 35 37 39 40 40 41 40 38 35 34 32 31 32 36 43 50 55 58 58 55 53 50 46 44 42 39 35 31 27 24 23 23
55 52 49 46 40 34 28 23 22 22 26 31 34 36 37 39 39 39 38 36 34 32 30 30 31 35 42 49 54 55 54 53 50 47 44 42 38 34 31 28 26 26 25
52 50 47 44 38 32 26 20 17 18 21 26 30 33 35 37 38 38 38 36 34 31 29 28 28 31 37 45 51 53 53 52 50 47 44 41 37 35 32 30 28 27 26
51 48 46 42 37 31 24 18 13 11 13 19 25 28 31 33 35 36 36 35 34 32 29 27 27 28 34 43 49 52 53 52 49 47 44 41 38 36 33 31 29 27 27
49 47 44 41 37 31 25 19 13 7 6 11 18 23 27 30 32 34 34 34 34 33 30 27 26 26 32 41 48 50 52 51 49 46 44 41 39 36 34 32 31 28 27
47 45 42 40 36 32 27 21 15 9 3 5 12 17 21 24 27 29 32 33 33 32 29 26 25 26 32 41 46 48 49 49 47 45 42 40 38 36 34 32 30 28 26
46 44 41 38 36 32 28 22 17 12 7 3 7 12 17 20 23 25 28 29 30 30 28 26 25 27 34 41 46 49 50 47 45 44 41 40 38 36 34 32 30 28 27
44 43 40 37 35 32 27 23 19 15 10 6 6 9 14 17 19 22 24 26 26 26 26 25 26 28 33 40 46 48 48 46 44 43 41 40 39 36 35 33 31 29 27
43 41 39 36 34 32 28 24 19 15 12 9 7 9 11 14 16 18 21 22 23 23 23 23 25 27 32 40 47 48 47 45 44 42 40 39 38 36 34 32 30 29 28
41 40 39 36 34 32 28 24 20 16 13 10 9 9 10 12 14 16 18 19 20 20 20 21 22 26 31 39 45 47 46 45 43 41 39 37 36 35 33 32 30 29 28
39 38 37 36 33 31 29 26 21 17 14 11 8 8 9 10 12 13 15 16 17 17 17 18 21 26 31 39 42 44 45 44 41 39 37 36 34 33 31 30 30 29 28
37 36 35 34 33 31 28 26 24 19 16 13 11 10 11 11 12 13 13 15 15 16 17 20 23 27 31 37 39 40 41 40 38 36 35 34 33 31 30 29 29 28 27
34 34 33 33 32 30 28 27 25 21 18 16 14 13 13 13 13 13 15 16 18 19 21 23 25 27 31 33 35 35 35 35 34 32 31 31 30 29 29 28 28 27 27
31 31 30 29 30 30 28 26 25 24 21 18 16 15 14 14 14 16 18 19 20 22 24 25 26 29 32 33 32 31 31 31 30 29 28 28 28 28 28 27 27 26 26
27 27 27 26 26 26 27 26 25 24 23 21 20 19 19 18 19 20 22 23 24 26 27 28 28 30 31 30 29 28 27 26 26 26 26 26 25 25 25 25 25 25 25
24 24 24 24 23 22 23 24 23 23 23 23 23 23 23 23 24 24 26 27 28 28 28 29 29 29 29 27 25 24 23 23 23 23 23 23 23 22 22 22 22 23 23

GEFSGL_500_meanwind_036.txt.gz
Wind_Speed
35 36 38 40 42 44 46 48 49 50 52 53 54 54 55 56 57 59 62 64 65 64 61 59 55 53 52 51 50 49 47 46 43 41 39 36 33 30 27 24 22 20 19
37 38 41 44 46 48 50 52 53 54 55 56 57 58 58 59 60 61 63 65 67 69 68 66 63 59 56 54 54 52 50 49 47 44 42 39 36 33 30 27 25 22 21
40 42 45 48 50 52 54 56 56 56 56 57 58 59 60 61 62 63 64 66 69 70 72 72 69 66 62 58 56 55 53 51 50 48 45 42 38 35 32 30 27 25 23
42 45 47 50 52 54 56 56 56 55 55 56 57 58 60 62 63 64 65 67 69 71 73 74 75 71 67 64 59 57 56 54 52 50 48 45 41 38 35 32 30 27 25
44 47 49 51 54 55 56 56 55 55 54 54 55 56 57 59 61 62 63 65 67 70 73 75 77 77 73 68 65 61 59 57 54 52 50 48 45 41 38 35 32 30 27
45 48 50 52 54 55 55 55 54 53 52 51 50 51 53 54 56 57 58 61 62 64 69 73 77 78 78 73 69 66 62 59 55 54 52 50 47 45 42 38 35 32 29
47 49 52 53 54 54 54 53 51 49 48 46 45 46 47 49 52 53 54 55 56 57 60 65 72 76 79 78 74 69 67 62 59 56 53 52 50 47 45 41 38 35 31
48 50 52 53 53 53 52 50 48 46 43 40 38 39 41 43 45 48 49 49 49 49 51 55 61 69 74 77 76 73 69 64 61 59 55 52 51 49 47 45 41 37 33
49 51 52 53 52 52 50 47 44 40 36 34 33 33 34 37 40 43 44 44 44 44 44 46 50 56 65 71 73 73 72 68 63 59 59 56 54 51 49 46 42 38 34
49 51 52 52 52 50 47 44 40 35 31 27 26 26 28 31 34 37 39 39 40 40 40 40 42 47 54 62 68 71 72 69 66 62 59 58 55 53 49 46 43 39 35
49 50 51 51 51 48 45 41 36 32 27 23 20 19 22 25 28 31 34 36 37 36 36 36 36 40 46 52 59 64 67 68 68 65 59 55 54 53 50 46 43 39 36
48 49 49 49 49 46 43 39 34 30 24 19 15 14 17 21 24 27 29 33 35 34 33 34 34 35 38 44 50 56 63 65 66 65 61 55 52 51 49 46 43 40 37
47 48 48 47 47 44 42 37 32 28 22 16 12 11 12 16 20 23 26 30 32 32 31 32 32 32 33 37 43 49 54 60 63 63 61 56 51 47 45 45 44 41 38
46 46 46 45 44 43 40 36 31 26 21 15 9 7 10 14 18 20 23 27 29 29 29 29 29 29 30 31 36 42 47 52 56 58 58 56 53 50 46 44 43 41 39
44 45 44 44 43 41 38 34 31 26 21 14 8 3 8 13 18 20 22 25 27 28 27 27 27 27 28 29 31 36 42 47 50 52 54 54 51 49 46 44 42 41 40
42 43 43 42 41 39 36 33 29 26 21 16 9 1 5 12 16 19 21 23 25 26 26 25 25 25 26 28 29 32 37 42 45 48 52 51 49 48 47 45 42 40 40
41 41 41 41 39 37 34 31 28 25 21 16 10 5 4 9 13 17 19 22 23 24 25 25 24 23 24 26 27 30 34 39 42 48 51 50 49 49 47 45 44 41 40
39 39 39 39 37 35 32 29 27 23 19 16 12 7 4 7 10 14 17 19 22 23 24 24 24 24 24 24 26 28 32 38 42 48 51 50 49 48 48 46 44 41 39
37 37 37 37 36 34 31 28 25 22 18 14 11 8 6 5 8 10 14 17 19 21 22 23 23 23 23 23 25 27 31 37 42 47 50 50 48 49 48 46 44 42 40
35 36 35 35 35 33 31 28 25 21 18 14 10 8 6 6 7 9 12 14 16 17 19 20 21 21 22 22 23 26 32 36 42 47 50 48 47 48 46 45 43 41 39
33 34 33 33 33 32 30 27 24 21 17 14 11 9 7 6 7 9 10 12 13 15 16 17 17 19 20 21 24 28 32 36 42 47 48 47 48 47 44 43 41 39 38
31 31 31 31 31 31 29 26 24 20 16 13 11 9 7 6 7 8 10 11 12 13 14 15 16 17 19 20 24 28 33 38 43 46 46 47 46 44 42 41 39 38 37
28 29 29 28 29 29 28 26 24 21 16 14 11 9 8 7 7 8 10 11 11 11 12 13 14 16 18 21 25 29 34 37 41 44 45 45 43 41 39 38 37 36 34
26 26 26 26 26 26 26 25 24 22 18 16 14 11 10 8 8 8 9 11 11 11 11 12 14 16 19 22 26 30 34 36 39 41 41 40 39 37 36 34 33 32 30
23 23 23 24 24 24 24 24 23 22 20 17 16 15 14 13 12 12 11 11 11 12 13 15 18 20 23 26 28 31 32 35 38 39 37 35 33 32 31 30 29 28 28
20 20 20 21 21 21 21 21 22 21 20 18 17 16 16 15 15 15 14 14 15 16 18 21 23 24 25 27 28 29 30 32 33 34 33 31 30 28 27 26 26 26 26

GEFSGL_500_meanwind_042.txt.gz
Wind_Speed
41 41 41 41 40 40 40 40 41 42 44 45 47 48 50 51 52 52 52 51 50 49 49 49 49 49 50 48 45 43 42 42 42 42 41 40 40 38 36 34 31 28 25
42 42 42 41 40 40 41 41 42 43 45 48 50 51 53 54 55 56 56 55 54 54 53 53 52 52 52 52 51 48 45 44 45 44 42 42 42 41 40 38 34 32 28
44 43 42 42 41 41 41 42 44 46 48 50 52 53 55 56 58 60 61 60 59 58 57 56 56 55 55 55 54 53 51 48 46 46 44 44 44 43 42 41 38 35 31
44 44 43 42 42 42 42 44 46 48 50 51 52 53 55 57 58 60 61 61 61 60 60 59 59 58 58 57 57 56 55 53 50 47 46 47 45 45 44 43 41 38 35
45 44 43 43 42 42 43 44 47 49 50 51 52 53 54 54 55 56 57 59 59 59 59 59 59 60 61 60 59 59 58 56 54 50 46 47 48 46 45 45 43 41 38
45 44 44 43 42 42 44 45 47 49 49 50 51 51 50 50 51 52 52 53 54 55 55 57 58 60 62 62 61 61 60 59 56 55 51 49 48 47 47 47 45 44 41
45 45 44 43 42 43 44 46 47 48 49 49 48 47 46 45 45 45 46 46 47 49 50 52 55 57 60 62 63 62 61 60 59 57 55 51 49 50 48 48 47 45 44
46 45 44 43 43 43 45 46 47 47 47 46 44 42 41 39 39 38 39 40 41 43 46 48 50 53 56 59 61 62 62 61 60 58 55 53 51 50 49 49 49 48 46
46 44 44 43 43 44 45 46 46 46 44 42 40 39 37 35 33 32 32 33 34 37 41 44 45 47 50 53 57 60 61 62 60 59 58 56 53 50 50 49 49 48 46
45 44 43 43 44 44 45 45 44 43 41 39 38 36 33 30 27 26 26 26 28 31 35 39 40 42 45 48 51 55 58 60 60 60 59 58 56 52 50 50 48 48 47
45 44 43 43 44 44 44 43 43 41 39 38 36 33 29 26 23 21 20 21 23 26 30 33 37 40 42 43 46 49 52 56 58 58 58 58 57 55 52 49 48 46 46
45 43 42 43 43 43 42 41 40 38 37 36 34 30 26 23 20 16 14 15 19 23 26 29 33 36 39 40 42 44 47 50 54 56 56 56 56 55 53 51 48 46 45
44 42 42 42 42 41 40 39 38 37 36 35 32 28 23 19 15 12 10 11 14 19 24 26 29 32 34 36 38 41 43 45 48 52 53 54 54 55 54 52 50 47 44
44 42 41 41 41 39 39 39 37 35 35 33 30 25 21 17 12 9 6 9 13 18 21 23 25 27 28 30 34 36 38 40 43 46 50 52 53 54 54 53 50 48 46
43 42 40 40 40 38 37 37 36 34 33 31 28 24 19 14 10 6 5 8 12 16 19 20 22 23 24 25 27 30 33 36 39 42 46 48 51 53 52 51 50 47 45
43 41 40 39 38 37 36 36 35 33 30 28 25 22 17 12 7 2 4 8 11 14 18 19 20 21 22 23 24 26 29 32 36 39 42 44 48 50 51 49 48 46 44
42 40 39 38 37 36 35 34 33 31 28 26 23 20 16 11 7 3 4 8 11 14 16 17 19 20 21 22 23 24 26 29 33 37 40 43 45 48 49 49 47 46 44
41 39 38 37 36 35 34 34 32 29 26 23 21 18 14 11 6 3 4 8 12 14 15 16 18 19 20 21 22 23 23 25 30 35 40 43 44 45 47 48 47 44 43
40 38 36 35 35 34 33 33 30 27 24 21 19 17 13 9 6 4 5 8 11 13 13 14 15 17 18 19 20 21 22 24 27 33 38 42 45 46 46 47 46 43 42
39 37 35 34 33 33 33 31 29 26 23 20 18 15 12 8 5 2 4 7 9 11 11 12 13 15 16 17 18 19 21 23 26 31 36 40 43 46 47 46 46 44 42
37 35 33 32 32 32 32 31 27 24 23 21 18 15 11 8 4 1 3 5 8 9 10 12 13 14 15 16 18 19 21 22 25 29 33 38 40 43 44 45 44 43 43
36 33 31 30 30 30 30 29 26 24 22 21 19 16 13 8 5 2 2 5 7 9 11 12 13 14 15 16 17 19 21 23 25 27 31 35 38 41 43 45 45 44 44
34 32 30 29 28 28 28 27 25 22 21 20 18 17 15 11 7 4 2 3 5 7 9 11 12 13 14 15 17 19 21 23 25 28 32 35 37 40 43 45 45 44 44
32 30 28 26 25 25 26 25 23 20 20 20 18 18 17 13 10 7 4 2 1 3 6 8 10 12 13 15 17 18 21 23 25 28 31 35 35 37 41 43 44 43 42
30 28 26 24 22 22 23 23 21 19 18 18 18 17 17 16 14 11 8 5 2 1 3 4 6 8 10 12 14 16 18 21 24 27 31 33 36 38 40 42 41 40 40
29 26 24 22 20 19 20 20 20 18 17 17 17 17 17 18 16 14 11 9 7 5 3 4 4 6 8 11 12 14 17 20 23 26 30 32 35 37 38 39 38 38 37

GEFSGL_500_meanwind_048.txt.gz
Wind_Speed
38 39 39 40 40 40 40 40 41 40 40 40 40 40 40 40 40 40 40 40 40 40 40 40 40 41 40 40 39 38 38 39 38 39 40 40 41 43 44 44 42 41 39
39 39 40 41 41 41 41 41 41 40 40 40 40 40 40 40 41 42 42 43 43 43 44 44 44 44 44 44 44 42 41 41 41 40 40 41 41 44 46 46 45 43 42
40 41 41 42 42 42 42 42 40 40 40 40 39 39 40 41 42 43 44 45 46 46 46 47 47 48 48 47 47 47 45 44 44 43 41 43 43 45 46 48 47 46 45
42 42 43 43 43 43 42 41 40 40 40 39 39 40 41 42 43 44 46 47 47 48 48 48 49 50 51 51 50 50 50 48 47 48 46 45 45 46 47 49 49 48 47
44 44 45 44 44 43 42 41 41 40 40 39 39 40 41 42 44 45 46 48 49 50 51 51 51 52 53 55 55 54 53 52 50 49 50 48 48 48 48 49 50 50 50
46 46 46 46 44 43 42 41 40 40 39 39 40 40 41 41 43 44 45 46 47 48 50 52 53 53 54 56 58 58 57 56 55 53 53 51 50 50 49 50 51 52 51
47 47 47 46 45 44 42 41 41 40 39 39 39 39 40 41 42 43 43 43 44 45 46 48 49 51 52 56 59 61 61 60 58 56 55 54 53 52 51 51 52 53 53
48 48 48 47 45 44 43 42 41 40 39 39 38 39 39 40 40 40 40 40 41 41 42 44 45 47 49 52 57 61 63 63 62 60 58 57 56 54 54 53 53 55 56
49 49 48 47 46 45 43 42 41 40 39 38 38 39 39 38 38 38 38 38 38 38 38 40 42 44 46 50 54 58 62 64 65 64 61 60 59 57 56 55 55 55 57
49 49 48 48 46 45 43 42 40 39 38 38 38 38 37 37 36 36 35 34 34 33 33 35 37 40 43 47 51 55 59 63 66 66 65 63 62 60 59 57 55 55 56
49 49 49 48 46 45 43 42 40 39 38 38 38 36 36 35 34 32 31 29 28 27 28 29 32 35 39 44 48 52 56 61 65 67 67 65 63 61 60 58 56 54 54
48 49 49 48 46 44 43 41 40 39 38 37 36 35 34 32 30 28 26 24 22 21 21 22 25 29 34 39 44 48 51 56 61 64 66 66 64 62 60 59 58 54 54
48 48 48 48 46 44 42 40 39 38 37 36 34 32 31 29 28 24 22 19 16 14 14 16 20 25 30 34 40 44 47 51 55 59 62 64 64 62 60 59 60 56 54
48 48 48 47 45 43 42 40 38 38 36 34 32 31 29 28 26 22 18 15 11 8 7 10 14 19 25 30 36 39 41 46 51 55 58 61 62 62 61 58 57 57 55
47 47 47 46 44 42 40 39 38 37 35 32 31 29 28 26 23 19 15 11 7 4 3 6 10 16 22 27 31 35 38 41 45 49 53 56 59 60 60 59 58 57 54
47 46 46 45 43 41 39 38 38 36 34 31 30 28 26 23 21 17 13 9 4 1 3 5 8 13 19 23 27 31 35 38 41 45 49 52 56 59 59 58 58 56 54
46 45 44 44 42 40 38 37 35 34 32 31 29 28 25 22 19 15 11 8 3 1 2 4 8 11 15 19 23 27 32 35 38 42 46 49 52 55 56 56 57 56 53
45 44 43 42 41 39 37 36 34 32 31 29 28 26 24 20 17 14 10 6 3 1 1 4 6 9 13 16 20 24 29 34 36 39 43 46 49 52 55 55 55 55 53
44 43 42 41 39 37 35 34 32 31 29 28 26 25 23 20 16 13 9 5 3 1 1 3 5 8 12 14 17 21 26 30 34 37 40 44 47 49 51 53 53 54 54
43 42 40 39 37 35 34 32 30 29 27 26 25 24 22 20 16 12 8 5 3 1 1 3 5 8 11 13 16 20 24 27 30 34 38 41 45 47 49 50 52 52 53
42 40 38 37 35 33 32 30 28 26 26 26 25 23 22 20 17 13 9 5 3 3 3 4 6 8 10 12 15 18 21 24 28 31 35 38 42 45 48 49 51 52 52
40 38 36 35 33 32 29 28 26 24 24 24 24 23 21 20 17 14 10 7 4 5 6 7 8 9 10 12 15 17 20 22 26 30 33 36 40 44 46 48 49 50 51
37 35 34 32 31 29 27 25 24 23 22 23 23 22 22 21 18 15 12 9 6 6 7 8 9 10 11 12 14 16 19 21 24 28 32 35 37 41 44 46 48 48 50
35 33 31 30 29 27 25 23 22 21 20 21 21 21 21 20 20 17 13 9 6 5 5 7 9 10 11 13 14 16 18 20 22 25 29 33 35 39 42 44 46 47 47
32 30 29 27 27 25 23 21 20 19 19 18 19 19 20 21 19 18 16 11 8 5 2 3 6 9 11 13 15 17 18 20 22 24 27 30 33 36 38 41 43 46 46
31 29 27 25 25 23 21 19 18 17 16 16 17 17 18 19 19 18 16 12 10 7 5 2 2 5 8 11 14 17 18 20 21 23 25 27 31 34 36 38 41 44 46

GEFSGL_500_meanwind_054.txt.gz
Wind_Speed
32 33 33 34 36 37 37 38 39 40 40 40 40 39 38 38 38 37 37 37 37 37 38 39 41 42 42 41 41 40 39 38 38 39 41 42 41 42 42 43 44 45 45
34 35 35 37 38 39 40 41 41 41 42 41 41 40 39 38 38 37 37 36 36 36 37 38 40 42 43 44 43 43 42 41 40 39 41 43 43 43 43 43 44 46 46
36 37 38 39 40 41 42 43 43 43 43 43 42 41 40 39 38 37 36 35 35 35 36 37 38 41 42 44 45 46 46 45 43 41 41 42 44 44 44 44 45 46 46
38 39 40 41 42 43 44 45 45 45 44 44 43 42 40 38 37 36 35 35 35 36 36 37 39 40 42 44 46 47 48 48 47 46 44 44 44 46 45 45 45 46 47
39 40 41 43 44 45 46 46 46 45 45 45 43 42 40 38 36 36 35 35 35 36 37 38 40 41 43 45 46 48 49 50 50 49 48 46 45 47 46 46 47 47 48
40 41 42 44 45 46 46 47 46 46 46 45 43 41 39 38 37 36 35 35 36 36 38 39 40 41 43 46 47 49 51 52 53 53 52 51 48 48 48 48 48 49 48
41 42 43 45 46 47 47 47 47 46 45 44 42 40 39 38 38 37 37 36 36 36 37 39 40 41 43 45 47 50 52 53 55 56 55 54 52 51 50 50 49 49 50
42 43 44 46 47 48 48 47 47 46 45 43 42 40 39 39 39 38 37 36 35 36 36 37 39 40 42 44 46 49 51 54 56 57 57 57 57 55 52 51 50 50 50
43 44 45 47 48 48 48 47 46 46 44 43 42 41 39 39 38 36 36 35 35 35 36 37 38 39 41 44 45 47 50 53 57 59 60 60 60 58 56 54 52 50 50
44 45 46 48 48 48 47 46 46 45 44 43 42 40 39 38 37 35 34 33 32 33 34 35 36 37 39 42 44 47 49 52 56 59 61 62 62 60 59 57 54 51 51
45 46 48 49 48 48 47 47 46 45 43 42 41 39 38 37 35 33 32 32 31 31 31 32 33 34 36 39 41 44 47 52 56 59 61 63 64 63 61 59 57 54 52
46 48 49 49 49 48 47 47 45 44 43 41 40 38 37 35 34 32 31 30 30 30 29 28 28 28 30 32 35 40 45 49 53 56 59 63 65 65 63 62 60 56 54
48 49 50 49 49 48 47 45 44 43 41 39 38 37 35 34 33 31 30 29 28 27 25 23 22 23 24 25 28 33 40 45 50 53 57 60 64 65 65 64 62 59 55
51 51 50 49 49 48 47 45 43 42 40 38 37 35 33 32 31 30 28 27 26 24 21 19 18 18 19 20 22 27 33 39 45 49 53 57 61 64 66 66 64 62 57
52 52 51 50 48 47 46 44 42 41 38 36 35 34 32 31 30 30 27 25 24 21 18 16 15 14 14 14 16 20 26 32 39 45 50 54 57 60 63 65 65 63 60
54 53 51 49 47 45 44 42 41 39 37 35 34 33 32 31 30 29 27 24 22 19 16 14 13 12 11 10 12 16 20 26 32 38 44 48 52 55 58 62 64 63 61
55 53 50 47 45 44 42 39 38 37 36 35 33 32 31 30 29 28 26 23 20 17 14 13 12 10 8 7 8 11 15 20 26 31 37 42 46 50 54 58 61 61 60
54 52 49 45 43 42 40 38 36 34 33 33 32 31 30 30 29 27 25 22 19 16 13 12 11 8 5 4 5 9 13 17 22 25 31 36 41 45 49 54 57 59 59
52 49 46 44 41 39 38 36 34 33 32 31 31 30 29 30 29 27 25 22 18 15 13 11 9 7 5 4 4 7 12 15 18 21 26 31 35 40 44 49 54 56 56
50 47 44 41 39 37 36 34 33 32 31 30 30 29 28 29 28 27 24 21 17 14 12 10 8 6 5 5 5 7 10 13 16 19 22 27 31 36 41 46 49 52 53
48 45 42 39 37 35 34 33 32 31 29 29 28 27 27 27 27 25 23 20 16 13 11 9 7 6 5 5 6 8 10 13 15 17 20 25 29 33 38 43 47 48 50
45 43 39 37 35 33 32 31 30 29 27 27 26 26 26 26 26 24 22 19 15 12 10 9 8 6 6 5 6 7 9 12 15 18 20 23 26 31 36 40 44 47 48
43 40 37 35 33 31 30 29 28 27 26 25 24 24 25 25 24 23 21 19 16 13 10 8 8 7 7 7 8 9 10 11 14 17 19 22 25 29 33 37 41 45 46
40 38 35 33 31 30 29 27 26 24 24 23 22 23 24 23 23 22 20 18 16 14 11 9 8 7 7 8 9 10 12 12 14 15 18 20 24 27 31 35 38 42 45
38 35 33 31 29 27 26 25 24 23 22 21 21 21 22 22 21 21 20 17 15 14 12 10 8 6 7 8 9 11 13 14 15 16 18 20 22 25 29 34 37 40 43
35 33 31 29 27 25 24 23 22 21 20 19 19 19 19 20 19 19 19 17 16 14 12 10 8 6 5 7 8 11 12 14 16 18 20 21 22 24 27 31 35 38 40

GEFSGL_500_meanwind_060.txt.gz
Wind_Speed
23 24 25 26 27 27 28 29 30 31 32 34 35 36 36 36 36 36 36 36 36 36 37 37 38 40 41 42 42 44 45 45 45 45 46 45 44 43 45 44 45 45 46
25 26 27 28 29 30 30 31 33 34 35 36 37 38 38 38 37 37 37 36 36 36 37 37 37 38 39 41 42 43 44 45 45 45 46 46 45 44 44 44 45 46 46
27 28 29 30 31 32 33 34 35 37 38 39 40 40 39 39 39 39 38 37 36 36 36 36 36 37 38 39 40 41 43 44 45 46 47 48 47 46 45 45 45 46 46
28 30 31 32 33 34 35 37 38 40 41 42 42 41 40 40 40 39 37 36 35 35 35 34 35 36 37 38 39 40 42 43 45 46 47 48 48 47 46 45 45 44 45
30 31 33 34 35 36 37 40 42 43 43 44 43 42 41 40 39 38 37 36 35 35 34 34 34 35 36 37 39 40 41 42 44 46 47 48 49 48 47 46 45 43 44
31 32 34 35 36 37 40 42 44 44 45 45 43 42 41 40 39 38 37 35 34 34 34 35 35 35 35 37 38 40 42 42 43 45 47 48 49 49 47 46 45 45 43
32 33 35 36 38 40 42 44 45 46 46 45 43 42 41 40 38 36 35 34 34 34 34 34 34 34 35 36 38 39 41 43 44 45 47 48 49 51 50 48 46 46 44
33 34 36 38 40 42 44 46 47 47 46 45 43 42 40 39 37 35 35 34 33 33 33 33 33 34 34 35 37 39 41 43 44 46 47 48 50 51 51 51 50 47 47
33 35 36 39 41 44 46 48 48 47 46 45 43 41 39 37 36 34 33 32 32 31 31 31 31 32 34 35 36 38 39 42 45 47 48 49 50 51 52 52 51 50 48
35 36 39 41 43 46 48 49 49 48 46 44 41 39 37 35 34 33 32 31 30 30 30 30 30 31 32 33 35 36 38 40 43 46 48 49 51 52 52 52 52 51 50
37 39 41 44 46 47 49 50 50 48 45 43 40 38 36 34 33 32 31 30 29 29 29 29 29 30 30 31 33 35 37 39 41 44 46 48 50 52 53 53 53 53 52
39 41 44 47 48 50 51 51 50 47 44 41 38 37 35 33 32 31 31 30 29 29 29 29 28 28 28 29 30 32 34 37 39 41 44 46 49 51 53 54 54 54 54
41 44 47 49 50 51 52 51 49 46 43 39 37 36 34 33 31 31 30 29 29 28 28 28 27 27 28 27 27 28 30 33 36 39 41 44 47 49 52 54 54 55 55
44 46 48 50 51 52 52 50 48 45 42 38 36 35 33 32 31 31 30 29 29 28 28 27 26 25 25 25 25 25 27 28 32 36 39 42 46 48 51 53 54 55 55
46 49 50 51 52 53 51 49 46 44 41 38 36 34 32 32 31 31 30 29 29 28 27 25 24 23 22 21 21 22 23 25 28 32 36 39 43 46 49 51 53 54 55
49 51 51 52 53 52 50 47 44 42 40 37 34 33 32 31 31 30 29 28 29 28 26 23 22 20 20 20 19 19 20 21 24 28 33 36 40 43 46 49 52 54 55
51 52 52 53 52 51 49 46 43 41 38 36 34 32 31 31 30 30 29 28 28 26 24 22 20 18 18 17 17 17 17 18 20 24 29 33 36 40 43 47 50 52 54
53 53 53 52 51 49 46 44 41 39 37 35 34 32 31 31 30 29 29 28 26 24 22 20 18 17 16 16 16 15 15 16 17 21 25 29 33 37 39 43 47 50 52
55 54 52 50 48 46 44 41 39 37 35 33 32 31 31 30 29 29 29 27 25 24 22 20 17 16 15 15 14 13 12 13 14 17 21 26 30 34 37 40 44 47 50
55 53 51 49 47 44 41 39 37 35 33 32 31 30 29 29 28 27 28 27 25 23 21 19 17 15 14 13 13 12 11 11 13 14 18 22 26 31 34 37 40 43 47
54 52 50 47 44 42 40 37 36 34 32 31 30 29 28 27 26 26 26 25 23 22 20 18 16 15 13 12 12 11 11 11 11 13 16 19 23 28 32 35 37 41 44
52 50 47 45 42 40 38 36 34 33 31 30 29 28 27 26 25 25 24 23 22 21 19 17 15 14 13 12 11 11 11 11 12 13 16 18 21 25 29 33 36 39 42
50 48 45 43 40 38 36 34 33 31 30 28 26 26 25 24 23 23 22 22 21 19 17 15 14 13 12 12 12 12 11 11 12 14 16 18 20 23 26 30 34 37 40
48 45 43 41 39 36 34 33 31 29 27 26 24 23 23 22 21 21 20 20 19 18 16 15 15 14 13 12 11 12 13 13 13 15 17 18 20 22 25 29 32 35 38
46 43 41 39 36 34 32 30 28 26 25 24 22 21 21 20 20 19 19 18 18 18 16 15 15 14 12 11 10 10 12 13 14 16 18 19 20 22 24 27 31 33 36
43 41 38 36 33 31 29 27 25 24 23 22 20 19 19 18 17 17 17 16 16 17 16 15 14 13 11 10 9 9 11 13 14 16 18 20 21 22 23 26 30 33 35

GEFSGL_500_meanwind_066.txt.gz
Wind_Speed
19 21 22 22 23 24 24 25 26 27 29 30 32 33 35 36 37 38 38 39 39 39 39 39 39 39 40 40 40 41 41 42 42 42 44 44 44 44 44 44 45 44 45
20 21 22 23 24 24 25 26 27 29 30 32 34 36 37 38 39 39 40 40 40 39 39 38 39 39 39 39 40 40 40 41 42 42 43 44 45 45 45 45 46 45 45
21 22 23 24 25 25 26 27 29 31 32 34 36 38 39 40 40 40 40 40 39 38 38 37 37 37 37 38 38 38 38 39 40 41 42 43 44 44 45 45 45 46 46
22 23 24 25 26 26 27 29 31 33 34 36 38 40 41 41 41 41 40 39 38 37 37 36 36 35 35 36 37 37 38 38 39 40 41 42 42 43 44 45 45 46 45
24 25 26 26 27 28 30 32 34 35 36 38 40 41 42 42 41 41 39 37 36 35 34 34 34 33 33 34 35 36 36 37 38 39 39 40 41 42 42 43 44 45 45
26 26 27 28 30 31 32 34 36 37 38 40 42 43 43 43 42 40 39 36 35 34 33 33 33 33 33 33 33 34 35 35 36 37 38 39 40 41 41 42 43 43 44
27 28 29 30 31 33 35 36 37 39 41 42 44 44 44 44 43 40 38 36 35 34 33 32 32 32 32 31 31 32 33 34 35 36 37 37 39 40 41 41 42 43 43
28 29 31 32 33 35 36 38 39 41 43 44 45 45 45 45 43 39 37 35 35 34 33 32 31 31 31 30 30 30 31 32 33 34 35 37 38 39 40 41 42 43 43
30 31 33 34 36 37 39 40 41 43 45 46 46 46 46 45 43 39 37 35 34 33 32 31 31 31 30 30 30 30 31 32 33 34 34 35 37 38 40 40 42 43 43
32 33 35 36 38 39 41 43 44 45 46 47 47 47 46 45 42 40 38 36 34 33 32 31 31 31 31 30 30 31 31 32 32 32 33 34 36 38 39 40 41 43 43
35 36 38 40 40 40 42 45 46 46 47 48 48 47 46 44 41 38 37 35 34 32 32 31 31 31 31 30 30 30 31 31 32 32 33 33 35 36 38 40 41 43 44
38 39 40 41 42 44 45 46 48 48 48 49 48 47 45 43 40 37 36 35 34 33 32 32 31 31 30 29 29 29 30 30 30 31 32 33 34 34 36 39 41 42 44
41 43 43 44 45 47 48 49 49 49 50 51 50 49 46 43 40 37 36 34 34 33 32 32 31 30 30 29 29 29 29 29 29 29 29 30 32 33 34 36 39 42 44
44 46 47 48 49 49 49 50 50 51 52 53 52 49 46 43 40 38 36 35 34 33 32 31 31 31 30 29 28 28 27 27 27 27 27 27 29 31 33 34 37 40 42
48 49 49 50 50 50 50 51 52 52 52 52 50 48 45 42 40 37 36 35 34 33 32 31 31 30 29 28 27 26 26 25 26 25 25 26 28 29 31 33 35 38 41
49 51 51 51 52 52 52 53 52 52 51 50 49 46 42 40 39 37 35 34 34 33 32 31 30 29 28 26 25 25 25 24 24 25 24 24 26 28 30 32 34 37 39
51 52 53 53 54 54 54 54 53 52 51 49 47 44 40 38 38 37 35 34 33 32 31 31 30 28 27 25 24 24 23 23 23 23 22 22 23 25 28 31 33 35 37
53 54 55 55 55 55 54 54 54 52 50 47 45 43 40 38 37 36 35 33 33 32 30 30 29 27 25 24 24 23 22 22 22 21 21 21 21 22 25 29 31 34 36
55 56 56 56 56 56 55 54 53 51 48 46 45 43 39 38 36 35 34 33 32 30 29 28 27 25 24 24 23 23 22 21 20 20 19 19 20 21 23 27 30 33 35
57 57 57 57 57 56 54 53 52 49 47 45 43 41 38 36 34 33 32 32 30 28 28 27 26 25 25 24 23 22 21 20 19 19 18 18 19 19 21 25 28 31 34
58 58 58 58 57 56 54 52 50 48 45 43 41 39 36 35 34 32 31 30 29 28 27 27 25 24 25 25 23 22 20 20 19 19 18 17 17 18 20 23 27 29 32
59 59 59 58 57 56 53 51 49 46 43 41 38 36 35 33 31 30 30 29 28 27 27 26 25 24 24 24 22 21 20 20 19 18 18 17 17 17 19 22 26 29 31
61 60 59 58 57 54 52 49 46 43 40 38 36 35 33 32 30 29 29 28 27 27 27 26 25 24 24 23 21 20 20 19 19 18 17 17 17 17 19 21 24 27 30
60 60 58 56 54 51 49 46 42 39 37 36 34 32 31 29 28 28 27 26 26 26 25 24 23 24 23 23 21 20 19 19 18 18 17 17 17 17 18 21 23 25 28
59 58 55 52 49 47 44 40 37 35 33 31 30 29 28 27 27 26 25 25 24 24 23 22 22 23 23 22 20 20 19 18 18 17 17 17 17 17 18 19 22 25 27
55 53 50 46 43 40 37 35 32 30 29 27 27 27 26 25 24 23 22 22 22 22 21 21 21 21 22 21 19 19 19 18 17 17 16 17 17 18 18 19 21 24 26

GEFSGL_500_meanwind_072.txt.gz
Wind_Speed
10 11 12 13 14 16 17 18 19 20 21 23 25 26 28 29 29 30 32 32 33 33 33 33 33 32 32 33 33 34 35 36 37 39 42 43 44 44 43 44 44 45 45
12 13 14 15 16 17 18 19 21 22 23 25 27 28 29 30 31 32 33 34 34 34 34 34 33 33 32 32 32 33 34 34 35 36 39 41 43 44 44 45 45 46 47
14 15 16 17 18 19 20 21 23 24 26 27 29 30 31 32 33 34 35 35 35 35 35 35 34 33 32 32 32 32 33 33 33 34 36 38 40 42 43 44 45 46 46
16 18 19 20 20 21 22 23 25 26 27 29 31 32 33 34 35 36 36 36 36 36 36 35 34 33 32 32 31 31 31 31 32 32 33 36 38 40 40 42 43 44 46
18 19 21 21 22 23 24 25 27 29 30 31 33 34 35 36 36 36 37 37 37 37 37 36 35 33 33 32 31 31 30 30 31 32 32 34 36 38 39 40 41 42 44
20 21 22 23 24 25 26 28 29 30 32 33 34 36 36 36 36 37 37 37 38 38 37 36 35 34 33 32 31 31 30 30 31 31 31 32 34 36 37 38 40 41 42
22 23 24 25 27 27 28 29 31 32 34 35 36 37 37 37 37 38 38 38 39 38 38 37 35 35 33 32 32 31 31 31 31 30 30 31 32 34 35 37 38 40 41
24 25 26 27 28 29 31 32 33 34 35 36 37 38 37 38 39 39 40 40 40 39 38 37 36 35 34 33 32 32 31 31 31 31 30 31 32 34 35 36 37 38 40
27 28 29 30 31 32 33 34 35 36 37 37 38 38 39 39 40 40 41 41 41 40 39 37 36 35 34 33 32 32 31 32 31 31 31 31 32 33 35 35 36 37 38
29 30 32 32 33 35 36 37 38 39 39 39 40 40 40 40 41 42 42 41 41 40 39 38 36 35 34 33 32 31 31 31 31 31 31 31 32 33 34 35 35 36 37
31 32 34 35 36 37 38 39 40 41 41 41 41 41 42 42 42 43 43 42 41 40 39 38 37 35 34 33 32 31 31 30 30 31 31 31 32 32 33 35 35 36 37
35 35 36 37 39 39 40 41 42 42 43 43 43 43 43 44 43 44 43 43 42 41 39 37 36 35 34 33 32 31 31 30 30 30 31 31 32 33 32 33 35 36 37
37 38 39 40 42 43 43 44 44 44 45 45 45 44 44 45 45 45 44 43 42 40 39 37 36 35 34 33 32 31 31 30 30 30 30 31 32 32 33 33 34 35 36
40 41 42 43 44 45 45 46 46 47 47 47 46 47 47 46 46 45 44 44 43 41 38 37 35 35 34 33 32 31 31 30 30 30 30 30 31 31 32 33 34 35 35
42 43 44 46 47 47 48 48 49 48 49 50 49 49 48 47 47 46 46 45 43 41 39 37 35 34 34 32 31 30 30 30 29 29 28 28 29 30 30 32 32 34 35
45 46 47 48 49 50 50 50 51 51 52 52 51 50 49 49 48 47 46 46 43 41 39 37 36 34 33 32 31 30 30 29 28 28 28 28 28 29 29 31 31 32 33
48 49 50 51 52 52 53 53 53 53 53 53 53 52 52 50 49 47 46 45 43 41 39 38 36 34 33 31 30 29 29 28 27 27 26 27 27 28 28 29 30 30 31
50 51 52 53 54 55 55 55 56 55 54 54 54 54 53 52 49 47 46 44 43 41 39 37 35 34 32 31 29 29 28 28 27 27 27 27 27 26 27 27 28 28 29
52 53 54 55 56 57 57 58 58 58 57 57 56 55 54 52 49 47 45 44 42 40 38 36 34 33 32 30 29 28 28 28 27 27 26 26 26 26 25 25 26 26 28
54 55 56 57 58 58 59 59 60 60 60 59 58 56 54 52 49 46 44 43 41 38 36 34 33 32 30 29 28 28 28 27 27 27 26 25 25 25 24 23 23 24 25
56 57 58 58 59 60 60 61 61 61 61 59 57 55 53 50 47 44 42 40 38 36 34 33 31 31 30 29 28 28 28 28 27 26 25 24 24 23 22 22 21 21 23
58 58 59 60 60 61 61 61 61 60 58 57 54 51 48 45 43 41 39 37 36 33 32 30 30 30 28 28 27 27 27 27 26 25 24 23 22 22 21 20 20 20 21
59 60 60 60 60 60 59 58 56 54 53 51 48 45 42 40 37 35 34 32 32 32 30 30 29 28 27 26 26 26 25 25 25 24 23 22 21 21 21 20 20 20 21
58 58 58 57 57 55 54 52 51 48 46 43 40 37 35 33 31 30 29 29 28 27 26 26 26 25 24 24 24 24 23 23 23 23 22 21 20 21 21 20 20 20 21
55 54 53 52 51 49 48 46 43 40 36 33 31 29 28 26 25 25 24 23 23 22 23 23 23 22 22 22 22 21 21 21 21 21 20 20 20 20 20 20 20 20 21
49 49 48 46 45 43 41 38 35 32 28 26 24 23 22 22 21 20 20 20 20 19 20 21 21 21 20 20 19 19 20 20 19 19 18 18 19 19 19 19 19 20 21

GEFSGL_500_meanwind_078.txt.gz
Wind_Speed
12 11 11 11 11 12 12 13 14 15 16 18 19 20 21 22 23 24 25 26 26 26 26 27 27 27 27 26 26 27 27 27 28 30 32 33 33 35 37 39 41 43 45
13 13 13 13 14 14 15 16 17 18 19 20 21 21 23 24 25 26 27 28 28 28 28 28 28 29 29 28 29 29 29 29 29 30 32 33 34 34 36 37 40 42 45
15 15 15 16 16 16 17 18 19 20 21 22 23 24 25 26 27 28 29 30 30 30 30 30 30 30 31 31 31 31 31 31 30 30 31 33 34 35 36 37 38 40 43
17 17 18 18 19 19 20 21 22 23 24 25 26 26 27 28 29 30 30 31 31 32 32 32 32 32 32 33 33 33 33 32 32 31 32 33 34 35 36 36 37 38 40
19 19 20 21 21 22 23 24 25 26 26 27 28 28 29 30 31 32 33 33 33 34 34 34 34 34 34 34 34 34 34 34 33 33 33 33 34 35 36 36 36 37 38
20 21 21 22 23 24 25 26 27 28 28 29 30 31 32 33 33 34 34 35 35 36 36 36 35 35 35 35 35 35 35 35 35 34 34 34 35 35 36 35 35 36 37
22 22 24 25 26 27 28 28 29 30 31 32 32 33 34 35 36 36 36 37 37 37 37 37 37 37 36 36 35 36 36 36 36 35 34 34 35 36 36 36 35 35 36
24 25 26 27 28 29 30 31 32 33 33 34 35 36 36 38 38 38 39 39 39 39 39 38 39 39 38 37 36 36 37 37 37 35 34 34 35 36 36 36 35 35 35
25 26 28 29 30 31 32 33 34 35 36 37 38 39 39 40 40 41 41 40 40 41 41 41 40 40 40 39 37 37 37 38 37 35 35 35 35 36 36 36 35 35 35
28 29 31 32 32 33 35 36 37 38 39 40 41 41 42 42 43 43 44 43 43 42 43 43 42 41 41 40 39 39 38 38 37 36 36 35 35 36 36 36 35 35 35
32 33 33 34 35 36 38 39 41 42 43 43 43 44 45 45 45 46 46 46 46 45 45 44 44 44 43 42 41 40 39 38 37 37 36 36 36 36 36 35 35 35 35
33 34 36 37 38 40 41 42 44 45 46 46 46 47 48 48 48 49 49 49 49 48 46 46 46 46 45 43 42 41 40 39 38 37 36 37 37 37 36 35 35 35 35
36 37 39 40 41 42 44 45 46 48 48 49 50 51 51 50 51 51 52 52 51 50 49 48 47 47 47 45 43 42 41 40 39 38 37 37 37 36 36 36 36 35 35
38 39 41 42 43 45 46 48 49 49 51 53 54 54 54 53 53 54 55 54 54 54 53 51 50 49 48 46 45 44 43 42 40 38 37 37 36 36 36 36 36 35 35
40 41 43 44 46 47 49 51 52 54 55 56 56 57 57 57 56 57 57 57 57 56 56 55 53 51 49 47 46 45 44 43 41 39 38 37 36 36 36 36 35 35 34
42 44 45 47 48 50 52 53 55 56 57 58 59 60 60 60 59 60 60 59 59 59 58 56 54 53 51 49 47 46 44 43 42 40 39 37 36 36 36 35 34 34 33
44 46 47 49 51 52 54 55 56 58 59 60 62 63 63 63 63 63 62 61 61 61 60 57 54 53 51 49 47 45 44 43 42 40 39 37 36 35 35 35 34 34 33
46 48 50 51 53 55 56 58 59 60 61 62 63 64 65 65 65 65 65 64 62 61 60 57 55 53 51 49 47 45 43 42 41 39 38 37 36 35 34 34 34 34 34
49 50 52 54 56 57 59 60 62 63 64 64 65 65 66 66 65 65 64 64 62 60 59 57 54 52 49 48 46 44 42 41 40 39 37 36 35 34 33 33 33 33 33
52 53 55 57 58 60 61 62 63 64 65 65 65 65 65 65 63 62 61 60 58 57 56 54 51 48 46 44 43 41 40 40 38 36 35 34 33 33 33 33 33 32 32
55 57 58 60 60 61 62 63 63 64 64 64 63 62 62 61 59 57 54 53 52 50 49 47 45 43 41 40 39 38 37 37 35 34 33 32 33 33 32 32 31 31 31
58 58 59 59 60 60 61 61 61 61 61 60 59 57 55 54 52 50 49 47 45 43 41 40 38 37 35 36 36 35 34 34 33 32 32 32 32 31 31 31 30 29 29
57 57 57 57 57 58 58 57 57 57 55 54 53 51 49 47 44 43 41 39 37 35 32 31 30 30 31 31 31 30 30 30 29 29 30 30 30 30 30 29 28 28 27
54 54 54 54 54 53 53 52 51 50 48 47 46 44 41 38 36 35 33 31 28 26 25 24 25 25 26 27 26 26 27 27 27 27 28 28 28 28 28 27 26 26 25
50 50 50 49 48 48 47 47 45 44 42 40 37 34 32 30 28 26 24 23 22 20 19 19 20 21 22 22 23 24 24 24 24 25 25 26 26 26 26 25 25 24 24
46 45 45 44 44 43 42 41 40 37 34 31 29 27 24 23 21 19 18 17 16 15 15 15 15 16 16 18 19 20 20 21 22 23 23 23 23 24 24 24 24 24 24

GEFSGL_500_meanwind_084.txt.gz
Wind_Speed
14 15 16 16 16 16 16 17 17 17 17 18 18 18 18 19 19 19 19 19 19 19 20 20 20 20 21 21 22 22 22 22 23 24 24 24 24 24 25 26 28 30 32
16 17 18 18 18 19 19 19 20 20 20 21 21 21 21 22 22 22 22 22 22 22 22 22 22 23 23 23 23 23 24 24 25 26 26 26 26 26 26 27 28 29 31
18 19 20 20 21 21 22 22 23 23 23 24 24 24 24 25 25 25 25 25 24 24 25 25 25 25 25 25 25 25 26 26 27 27 28 29 29 28 28 28 29 30 31
19 20 21 22 23 24 24 25 25 25 26 26 26 26 27 27 27 27 27 27 27 27 27 27 27 27 28 28 28 28 28 28 28 29 30 30 30 30 30 30 30 31 32
21 22 23 24 25 26 27 27 27 28 28 28 28 29 29 29 29 29 29 29 29 29 29 29 30 30 30 31 31 31 30 30 30 31 31 32 33 32 32 32 32 32 33
23 24 26 26 27 28 28 29 29 30 30 30 30 31 31 31 31 31 31 31 31 31 31 32 32 32 33 33 33 33 33 33 33 33 33 34 34 34 34 34 34 34 34
26 27 28 29 29 30 30 31 31 32 32 32 32 32 31 31 32 33 33 33 34 34 34 34 34 35 35 36 36 36 36 36 36 35 35 36 36 36 36 36 35 35 35
29 30 30 30 31 32 32 33 33 33 33 33 33 33 33 33 34 35 35 36 36 37 37 37 37 38 39 39 38 38 38 38 38 37 37 38 38 38 38 37 37 36 36
32 32 32 32 33 34 35 35 35 34 34 35 35 36 36 36 37 38 39 39 40 40 40 41 41 41 42 42 42 41 41 41 41 40 40 40 40 40 40 39 38 38 37
35 34 34 35 35 35 36 37 37 37 37 38 38 39 39 40 40 42 43 43 43 43 44 44 44 44 45 45 45 44 44 44 45 44 42 42 41 41 41 41 40 39 38
36 37 37 37 38 38 38 38 39 40 41 41 42 42 42 43 44 45 46 47 48 48 48 47 47 47 47 48 48 48 47 47 47 46 45 44 43 43 43 42 42 41 40
36 37 37 37 38 40 41 41 41 41 43 43 44 44 46 47 47 48 50 51 51 52 51 51 51 51 51 51 51 51 51 51 50 49 47 46 46 45 45 44 43 42 41
37 38 38 39 39 40 41 42 43 44 44 45 46 48 49 50 51 52 53 54 55 55 55 56 55 55 55 55 55 54 54 54 53 51 50 49 48 48 47 46 45 43 42
35 37 38 38 38 40 41 43 44 46 47 48 49 50 52 53 54 56 57 58 59 59 59 59 59 60 60 59 58 58 57 55 55 54 53 51 50 49 47 47 46 45 43
35 36 38 39 41 42 43 44 46 47 48 50 52 53 55 56 58 59 60 61 62 63 64 64 64 64 64 63 61 60 59 57 57 56 55 53 51 50 49 48 47 46 44
37 39 40 41 42 43 45 46 48 50 52 54 56 57 59 60 62 63 64 65 66 66 67 67 67 66 65 64 63 62 60 59 57 56 55 53 51 50 49 48 47 45 44
38 40 41 43 44 46 48 50 52 53 55 58 60 61 63 64 66 66 67 68 68 68 69 68 68 66 65 64 63 61 59 58 56 55 54 52 50 49 48 47 45 44 42
41 42 44 46 48 49 51 53 56 57 59 61 63 64 65 66 67 67 68 68 68 68 68 67 66 64 62 61 60 59 57 56 54 52 50 49 49 48 47 47 46 44 43
44 46 48 49 51 53 56 58 60 62 63 64 65 66 66 66 66 65 65 65 65 65 64 63 61 60 58 56 54 53 52 51 50 50 48 47 47 47 46 45 44 43 42
47 49 51 53 55 57 59 61 63 63 64 64 64 64 63 63 62 62 61 61 60 59 57 56 54 53 51 50 48 47 46 45 45 45 45 45 45 44 43 43 43 43 41
51 53 55 56 58 59 61 62 62 61 61 60 59 59 59 58 58 57 56 55 53 51 50 48 47 46 45 44 43 41 40 39 39 39 39 39 39 39 39 39 39 38 37
54 55 56 57 58 58 58 57 57 56 55 54 53 52 52 51 50 49 47 46 43 42 41 39 38 37 36 34 34 33 33 33 33 33 32 32 32 33 34 35 34 33 34
54 54 55 55 55 54 53 52 51 49 49 48 46 45 44 43 42 41 39 38 36 35 33 31 30 29 27 26 26 26 27 26 26 26 27 28 28 30 30 30 30 30 31
51 51 50 50 49 48 47 46 45 43 43 41 40 39 39 38 36 34 33 31 29 28 27 26 25 24 22 20 21 21 20 21 21 22 23 23 24 25 26 26 27 27 28
47 46 45 44 44 43 42 40 39 38 36 36 35 34 33 31 29 27 26 24 22 21 20 19 19 18 17 16 16 15 15 16 18 19 19 20 21 22 23 25 26 26 26
42 41 40 40 39 38 36 35 34 33 32 31 29 28 26 24 23 21 19 18 17 15 14 14 13 11 11 10 11 11 12 12 13 15 16 17 18 19 20 22 23 24 24

GEFSGL_500_meanwind_090.txt.gz
Wind_Speed
12 12 12 13 14 15 15 15 16 16 17 17 17 17 18 19 20 21 22 22 23 23 23 23 23 23 23 23 23 23 23 23 23 23 22 22 22 23 23 23 23 24 24
12 13 14 15 16 16 16 17 18 18 19 19 20 20 21 21 22 23 24 24 25 25 25 25 25 26 26 26 26 26 26 25 25 25 25 25 24 25 25 26 26 26 26
13 14 15 16 17 17 18 19 20 20 21 21 22 23 23 24 25 26 26 26 27 27 27 27 27 27 28 28 28 28 28 28 28 27 27 27 27 27 27 27 28 28 28
13 15 16 17 17 18 19 20 22 23 23 24 24 25 26 27 27 28 28 28 28 29 29 29 29 29 30 30 30 30 31 30 30 30 30 30 30 30 30 30 29 29 29
15 16 17 18 19 20 21 22 23 24 25 26 26 27 28 28 29 30 31 31 31 31 31 31 31 32 32 32 32 32 32 32 32 32 32 33 33 33 32 32 31 31 31
19 20 21 21 22 23 24 24 25 27 28 28 29 29 30 30 31 32 33 33 33 33 33 33 33 33 34 34 34 34 34 34 34 35 35 35 36 35 35 35 35 34 33
23 24 25 25 26 27 27 28 29 30 30 30 31 31 32 32 34 34 35 35 35 35 35 35 35 36 36 36 36 37 37 38 38 38 38 38 38 38 37 37 37 36 35
27 28 29 30 31 31 31 31 32 31 32 32 33 33 34 35 36 37 38 39 38 37 38 38 38 38 39 40 40 40 40 40 40 41 41 40 40 40 41 40 39 39 38
30 30 30 31 33 34 33 33 33 34 35 36 37 37 37 37 38 39 41 41 39 39 40 41 41 41 42 44 44 44 44 43 44 45 44 43 43 43 44 44 43 43 41
32 31 32 32 33 33 34 34 35 35 36 37 38 38 39 39 39 40 41 41 41 40 40 41 42 43 44 45 46 47 47 47 48 48 47 47 46 46 46 47 47 46 45
32 33 34 35 36 36 37 36 36 36 37 38 39 40 41 42 41 41 42 42 43 43 43 44 45 46 47 48 49 49 49 50 51 51 51 51 50 50 49 50 50 49 48
34 34 35 35 36 36 36 35 36 37 38 40 41 42 42 42 42 43 44 44 45 46 47 48 49 51 51 52 52 53 54 55 55 55 55 54 54 53 53 52 52 51 51
34 35 36 35 35 35 36 37 38 38 38 39 40 41 42 42 43 45 46 47 48 49 50 52 53 55 56 56 57 57 58 59 60 60 59 59 58 57 56 55 53 52 51
34 34 34 34 35 36 36 36 37 37 38 40 41 42 43 45 46 47 49 50 52 54 55 57 58 59 60 61 61 62 63 63 64 63 62 61 60 58 57 56 55 53 52
31 32 32 33 34 34 35 36 37 39 41 42 43 44 45 47 49 52 54 55 57 59 60 61 62 63 64 64 65 65 65 65 65 63 62 61 59 59 58 56 55 54 52
32 33 34 35 35 36 37 38 40 41 42 44 45 47 49 52 54 56 58 60 61 63 64 64 65 66 66 67 67 66 65 65 64 62 61 60 60 58 57 56 55 54 54
35 36 36 37 38 39 40 41 43 44 46 47 49 51 53 55 57 59 60 61 62 63 64 64 64 65 65 65 64 64 63 62 62 61 60 58 56 55 55 54 54 53 52
37 38 38 39 40 42 43 44 46 48 49 51 53 55 56 57 59 60 60 60 60 61 61 61 61 61 61 60 59 58 57 56 56 56 55 54 52 51 50 49 49 49 50
38 39 40 41 43 44 46 48 50 51 53 55 56 57 57 58 59 59 59 58 58 57 57 57 56 55 54 53 52 51 51 50 49 48 47 47 46 45 45 45 45 45 45
39 41 42 43 45 47 48 50 51 53 54 56 56 56 56 56 56 55 55 54 53 53 52 51 50 48 47 46 45 45 44 43 42 41 40 40 40 40 40 40 40 40 40
42 44 45 46 48 49 50 51 52 53 53 53 53 53 53 52 52 51 50 50 49 48 47 45 43 42 41 41 40 39 38 37 36 36 36 36 35 35 35 34 35 35 36
45 46 47 48 49 49 49 50 50 50 50 50 49 48 47 47 46 45 45 44 43 42 40 38 37 37 36 36 35 33 32 31 31 30 30 30 29 29 28 29 31 31 32
46 47 47 47 47 47 47 47 47 46 46 45 44 43 42 41 39 39 39 37 36 35 34 32 32 31 31 31 29 28 27 26 26 25 24 24 25 25 25 26 26 27 28
45 45 45 45 44 44 44 44 43 42 41 40 40 39 37 36 35 34 33 32 31 30 29 28 28 27 25 24 23 23 22 22 21 20 20 20 20 20 21 21 22 23 24
43 43 42 41 41 41 40 39 38 37 36 36 35 34 32 31 30 30 29 28 27 26 26 24 23 21 20 20 19 19 18 17 16 16 16 16 16 16 17 18 19 19 20
41 40 39 38 38 37 35 35 34 33 32 31 30 28 27 26 26 26 24 23 23 22 21 20 19 18 17 17 16 16 15 14 13 13 13 12 12 12 13 14 15 16 17

GEFSGL_500_meanwind_096.txt.gz
Wind_Speed
11 13 14 16 17 18 18 19 19 19 19 19 19 19 19 19 19 19 19 19 19 19 19 19 18 18 18 18 19 19 19 19 19 18 18 19 19 19 20 20 20 20 20
12 14 15 17 18 19 19 20 20 21 21 21 21 21 22 22 22 21 22 22 22 22 22 22 21 21 21 21 21 22 22 22 22 22 22 22 22 22 23 23 23 23 23
13 14 16 17 18 19 20 21 21 22 22 23 23 24 24 24 24 24 24 24 24 24 24 24 24 24 24 24 24 24 25 25 25 25 25 25 25 25 25 26 26 26 26
12 13 15 17 18 19 21 22 24 24 24 25 25 26 27 27 27 27 27 27 27 27 27 27 27 27 27 28 27 28 28 28 28 28 28 28 28 28 28 29 29 29 30
14 14 15 18 19 21 22 24 25 26 26 27 27 28 29 29 29 30 30 30 30 30 30 30 30 30 30 31 31 31 31 31 31 31 30 31 31 32 32 32 32 32 33
17 17 19 20 22 23 24 25 26 26 27 27 29 31 31 31 31 32 32 32 32 32 32 32 32 33 34 34 35 35 35 34 34 34 34 34 35 35 35 35 35 35 35
18 20 20 22 23 24 25 25 25 25 27 29 30 32 32 33 33 34 35 34 33 33 33 34 35 35 36 37 37 37 37 37 37 38 38 38 38 39 40 39 40 40 39
21 21 22 21 23 24 24 25 26 26 27 29 29 31 32 33 33 33 34 34 34 34 35 35 35 36 37 38 38 38 38 39 40 41 41 41 42 42 43 43 44 44 44
23 23 23 24 25 25 26 26 27 27 29 31 32 32 31 32 32 33 34 34 34 35 36 36 38 39 39 40 41 41 40 41 43 44 44 44 45 46 47 47 47 48 46
23 23 25 26 27 27 27 27 28 28 28 30 30 31 31 31 32 34 34 35 35 36 37 38 38 40 41 42 43 43 43 43 44 45 46 46 47 48 50 51 51 52 51
25 26 27 27 27 28 28 28 28 28 29 29 30 30 32 32 32 33 34 34 36 37 38 39 40 40 41 43 44 45 45 46 47 48 50 50 51 52 53 55 56 57 56
27 27 28 28 29 30 30 29 29 29 29 30 31 32 33 33 34 36 36 37 37 38 39 40 41 43 44 45 46 48 49 51 52 53 54 54 55 57 58 59 60 61 61
29 29 30 30 30 30 31 31 32 32 32 33 33 35 36 37 38 39 40 41 41 42 42 44 45 46 47 49 51 53 55 56 57 58 59 60 61 62 63 64 64 64 64
31 31 31 32 32 32 32 32 33 33 34 35 36 37 38 39 40 40 41 41 42 44 46 48 49 51 52 53 55 56 58 60 61 62 63 64 64 65 66 67 67 67 67
33 33 33 33 34 34 34 34 34 34 35 36 37 38 39 41 42 44 45 46 47 49 50 52 53 54 55 56 57 59 60 61 62 63 64 64 65 66 67 67 68 68 67
33 33 34 34 35 35 36 36 36 37 38 39 41 42 43 44 46 47 49 50 51 52 53 54 55 55 56 58 59 60 61 62 62 63 63 64 64 65 65 64 64 64 64
32 33 34 34 35 35 36 37 38 40 40 41 43 44 45 47 48 49 50 51 52 53 54 55 56 57 57 58 59 59 60 61 61 61 61 61 60 60 58 57 57 57 57
33 34 35 35 36 37 38 39 40 41 42 44 45 47 48 49 50 51 51 52 53 53 54 55 55 55 55 55 56 57 57 57 57 56 55 54 53 53 52 52 52 52 52
34 35 36 37 38 40 41 42 43 44 45 46 47 48 49 50 51 51 51 52 52 52 52 52 51 51 52 52 52 52 51 50 49 48 47 47 46 47 47 47 47 47 46
35 37 38 39 40 41 42 43 45 46 47 47 48 49 49 49 49 50 50 49 49 49 48 47 47 47 46 45 44 43 42 41 40 40 40 41 42 41 41 40 40 39 40
38 39 40 40 41 43 44 45 46 47 48 48 48 48 47 47 47 47 46 45 44 43 43 42 42 41 40 39 37 36 35 34 34 35 35 36 35 35 35 34 34 33 33
39 40 40 41 43 44 45 46 46 46 46 46 45 45 44 44 43 43 41 40 39 38 37 37 35 33 32 32 31 30 29 29 28 29 30 30 29 28 28 28 27 27 27
40 41 42 43 43 44 44 44 44 44 43 43 41 41 40 40 39 38 37 36 35 33 31 29 29 28 28 27 27 26 25 24 25 25 25 24 23 23 22 21 21 22 22
41 41 42 42 42 42 42 42 41 40 39 38 38 37 36 36 34 33 32 31 29 28 26 26 26 26 25 25 24 24 23 23 22 22 21 21 20 19 19 19 19 18 18
40 40 40 40 40 40 39 38 37 36 36 35 34 33 32 31 30 28 27 26 25 25 24 24 24 24 23 22 21 20 20 20 19 19 18 18 17 16 16 15 15 15 15
38 38 38 38 37 37 36 35 34 33 32 31 30 29 28 27 26 25 25 24 23 23 23 22 22 21 20 19 18 18 18 18 18 18 17 16 16 15 15 15 15 14 14

GEFSGL_500_meanwind_102.txt.gz
Wind_Speed
14 16 17 17 18 19 20 20 20 20 21 21 21 21 21 22 22 23 23 23 23 23 23 23 22 22 22 22 22 22 22 21 22 22 22 22 22 22 22 23 23 23 23
14 15 17 18 19 20 21 21 21 22 22 23 23 23 24 25 25 26 26 26 26 27 27 27 27 26 26 26 26 26 25 25 25 25 26 26 26 26 26 26 26 27 27
13 15 15 17 18 19 20 21 22 23 24 25 26 26 27 28 28 28 29 29 29 30 30 30 30 30 30 30 29 29 29 29 28 29 29 29 29 29 29 30 30 30 30
13 15 15 16 17 19 20 22 23 25 26 27 28 29 30 31 31 32 32 32 32 32 33 33 34 34 33 33 33 33 33 32 32 32 31 32 32 33 33 33 33 33 33
14 15 16 17 18 19 21 23 25 26 27 28 29 31 32 33 34 34 34 35 36 36 36 37 37 37 37 37 36 36 36 35 35 35 35 35 36 36 37 36 36 36 36
15 17 17 17 18 19 21 23 24 25 25 27 28 30 33 34 35 36 37 37 38 38 39 39 39 39 39 40 40 39 39 38 39 39 39 39 39 40 41 40 40 39 39
15 16 17 19 20 20 21 22 22 23 25 28 30 30 31 33 35 36 38 39 40 40 40 40 40 40 40 41 42 42 42 42 42 42 42 42 42 43 43 43 44 44 42
17 19 20 20 21 21 22 24 25 26 28 29 30 31 32 34 36 36 37 39 41 41 41 41 42 42 43 43 43 43 44 44 44 44 44 44 44 45 46 47 47 47 46
18 19 20 21 21 22 23 24 26 28 29 31 32 33 34 35 36 37 38 39 40 41 42 42 42 43 44 44 45 44 45 45 46 47 47 47 47 48 49 49 50 50 49
20 20 21 22 23 24 25 26 28 29 30 31 33 33 33 34 34 35 38 39 40 41 42 42 43 44 44 45 45 46 46 47 48 49 50 50 50 51 51 52 53 54 54
21 21 22 23 24 25 25 26 27 28 30 30 31 32 33 33 34 35 37 39 40 41 42 42 43 44 45 46 47 48 48 49 50 51 52 52 53 54 55 56 57 58 58
22 22 23 24 25 26 27 27 28 29 30 30 32 34 34 35 37 37 38 39 40 42 43 43 44 45 46 47 48 49 50 52 52 53 53 54 54 56 57 59 60 61 62
24 24 25 26 27 28 29 30 30 31 32 33 34 35 36 37 38 38 39 40 41 43 44 45 46 46 48 49 51 53 54 54 55 55 56 57 58 60 61 62 63 65 66
25 26 27 28 29 30 30 31 32 33 34 35 36 37 38 39 40 40 42 43 44 45 46 47 48 50 51 52 53 55 55 56 57 58 58 60 61 62 64 65 66 66 67
27 28 29 30 31 31 32 33 33 34 35 37 37 38 39 41 42 43 45 46 47 48 50 51 51 52 53 54 56 57 57 58 58 59 60 62 63 64 64 65 65 66 66
29 30 31 31 32 33 34 35 35 36 37 38 39 40 41 43 44 46 47 49 50 51 52 53 53 54 54 55 56 57 58 59 60 60 61 61 62 62 62 63 64 64 64
30 31 32 33 34 35 36 37 38 39 40 41 42 42 44 45 46 47 48 49 51 52 52 53 54 54 54 55 55 56 57 58 58 58 58 59 59 60 60 60 60 61 60
32 33 34 35 36 37 39 40 41 42 42 43 44 46 47 48 49 50 50 51 52 52 53 53 53 54 54 55 55 55 55 55 55 55 55 55 55 55 55 55 54 53 52
34 35 36 38 39 41 42 43 44 45 46 47 48 49 50 50 51 51 52 52 52 52 51 51 51 51 51 51 51 51 51 50 49 49 49 48 48 48 47 46 45 44 43
36 37 39 40 42 43 44 45 46 47 48 49 50 50 51 51 51 51 51 50 50 49 48 48 47 47 46 46 45 45 44 44 43 43 42 41 41 40 39 38 38 37 37
38 40 41 42 43 44 45 46 47 48 49 49 49 49 49 49 48 48 47 47 46 45 44 43 43 42 41 40 39 39 38 38 38 37 36 36 35 34 33 33 32 32 32
40 42 43 44 44 45 46 47 47 47 47 47 47 47 46 45 45 44 44 43 41 40 40 39 38 37 36 36 35 35 34 34 33 33 33 32 32 30 29 29 29 28 28
41 42 43 43 44 44 45 45 45 44 44 44 44 43 42 42 41 40 39 38 37 36 36 35 34 33 33 32 32 31 31 30 30 30 30 29 28 27 26 26 25 24 25
41 41 42 42 43 43 42 42 41 41 40 40 40 39 38 37 36 35 34 33 33 32 31 31 30 30 29 29 29 28 27 27 27 26 26 25 25 24 23 23 23 22 23
40 40 41 41 40 39 38 38 37 37 36 36 36 35 34 33 32 31 30 30 30 29 28 27 27 27 26 25 25 25 24 23 23 22 22 21 21 20 21 21 21 21 22
39 38 38 37 37 36 36 35 35 34 34 34 33 32 31 30 30 29 28 27 27 26 26 25 25 24 23 23 22 22 21 21 20 20 20 19 19 19 20 20 20 21 21

GEFSGL_500_meanwind_108.txt.gz
Wind_Speed
13 15 16 16 16 16 16 17 18 18 19 19 19 20 20 21 21 21 21 21 22 22 23 23 23 23 23 24 24 24 24 24 25 25 25 26 26 26 26 26 27 27 27
12 14 16 17 17 17 17 18 19 19 20 21 21 22 22 22 23 23 24 24 25 25 26 26 27 27 27 28 28 28 28 29 29 29 30 30 30 30 30 30 31 31 31
11 14 16 17 17 18 18 19 20 20 21 22 23 23 23 23 24 26 26 27 27 28 28 29 30 30 30 31 31 32 32 32 32 33 33 34 34 34 34 34 34 34 34
10 11 13 15 16 18 18 19 20 21 22 23 24 24 25 25 27 27 28 29 30 31 31 32 32 33 33 34 34 35 35 35 36 36 37 37 37 38 38 38 38 38 38
10 11 12 13 14 16 17 18 20 21 22 22 23 24 26 27 29 30 31 31 32 32 33 34 35 35 36 37 37 38 38 38 39 39 39 40 40 40 40 41 41 40 40
11 12 13 14 14 15 16 18 19 21 22 22 24 25 27 28 29 30 32 33 33 33 34 35 36 37 38 38 39 40 40 40 40 41 42 42 42 42 42 43 43 43 43
12 13 14 15 16 16 17 18 19 21 22 23 24 25 26 27 29 30 31 33 34 35 36 37 38 39 40 42 43 43 43 43 43 43 44 43 44 45 45 45 45 46 46
14 15 15 15 16 17 18 19 20 22 23 24 25 27 28 29 30 31 33 35 36 37 38 39 40 41 41 42 43 43 43 43 44 45 46 45 46 47 47 47 47 47 47
16 16 17 17 17 18 19 21 22 23 24 26 27 28 30 31 33 35 36 37 39 39 40 40 41 42 43 43 44 44 45 47 47 47 48 49 49 48 49 49 49 49 49
18 18 19 19 20 21 22 22 23 24 25 27 28 30 32 33 34 35 37 38 39 40 41 42 42 44 44 44 45 46 47 48 48 48 49 50 50 50 51 51 51 51 51
21 21 21 22 23 24 24 24 25 26 27 29 30 31 33 34 36 36 38 39 40 41 42 43 44 46 47 47 47 47 48 49 49 50 50 51 51 51 51 52 52 53 53
23 23 23 24 25 26 26 27 27 28 30 31 32 34 35 36 37 39 40 41 42 43 44 45 45 46 47 48 48 48 49 50 50 51 51 52 53 53 54 55 56 56 56
24 25 26 26 26 27 27 28 29 30 31 33 34 35 37 38 39 41 42 43 44 45 46 47 49 50 51 51 51 52 52 53 53 54 54 54 54 55 55 56 56 57 58
26 26 26 27 27 27 28 29 30 31 33 34 36 37 39 40 42 43 44 45 46 48 49 50 51 53 54 54 55 56 56 57 57 57 57 57 57 57 57 57 57 58 58
26 26 27 28 28 28 29 30 32 33 34 36 37 39 40 41 42 44 45 46 48 50 52 53 55 56 57 57 58 58 58 58 58 57 57 57 57 57 57 57 57 58 58
26 26 27 28 28 30 31 33 34 35 36 38 39 41 42 44 45 47 48 50 51 52 53 54 55 56 57 57 57 57 57 57 57 57 57 57 57 57 57 57 57 57 57
26 27 28 29 30 31 33 35 36 37 39 41 42 44 45 47 48 50 51 52 53 54 54 55 55 55 56 56 56 56 56 56 55 55 56 56 56 56 56 55 55 55 54
27 28 29 30 32 33 35 37 39 41 42 44 45 47 49 50 51 52 53 54 54 53 54 54 54 53 53 53 53 53 53 53 53 52 52 52 51 51 50 50 50 49 48
28 30 31 33 34 36 38 40 42 44 45 47 49 50 50 51 51 52 52 52 52 51 51 51 50 50 49 49 49 48 48 48 47 46 46 45 45 44 44 44 43 42 42
30 32 34 36 38 39 41 42 44 46 48 49 50 50 50 50 50 49 48 48 48 47 46 46 45 45 44 44 43 43 42 42 41 40 40 40 39 39 39 38 38 38 37
32 34 36 38 40 41 43 45 46 47 48 48 48 48 48 47 46 46 45 44 43 43 41 40 40 40 39 38 38 38 37 37 36 36 35 35 35 34 34 34 34 33 32
35 37 38 40 41 43 44 46 46 46 46 46 46 45 44 43 43 42 41 40 39 38 37 36 36 35 35 34 34 34 33 33 32 32 31 31 31 31 31 30 29 28 28
37 39 40 42 43 43 44 44 44 44 43 43 42 42 41 40 39 38 38 37 36 35 34 34 33 33 32 32 31 31 30 29 28 27 27 27 27 27 26 25 24 24 23
39 40 41 42 42 43 42 42 41 41 40 39 39 38 38 37 37 36 35 33 33 32 32 32 32 31 30 30 29 28 27 26 25 24 24 24 24 23 22 21 20 20 20
40 40 41 41 41 41 40 39 38 38 37 37 36 36 35 34 33 32 32 31 31 31 31 30 29 29 28 27 25 25 24 23 22 21 21 21 21 19 18 18 18 19 19
40 40 40 40 39 38 37 36 36 35 34 34 33 33 32 32 31 31 30 30 29 29 28 28 27 27 26 25 24 23 21 21 20 19 19 19 18 17 17 17 17 18 18

GEFSGL_500_meanwind_114.txt.gz
Wind_Speed
9 11 12 13 14 14 14 15 15 16 16 16 17 17 18 19 19 19 20 20 21 21 22 22 22 23 23 23 24 24 25 25 25 25 24 24 24 25 25 25 25 26 26
6 8 11 13 14 15 15 15 17 17 18 18 18 19 19 20 21 21 22 22 23 24 24 24 25 25 26 27 27 27 28 28 29 29 29 28 28 29 29 30 30 30 30
7 8 10 12 13 15 16 16 18 19 19 20 20 20 21 21 22 22 22 24 25 26 26 26 27 28 28 29 30 30 30 31 31 32 32 32 32 32 33 33 34 35 35
7 8 9 12 13 15 16 17 18 19 20 20 21 21 21 22 22 22 23 24 25 26 26 28 29 29 30 31 31 32 33 33 34 34 35 35 36 36 37 37 37 38 38
8 8 9 11 13 14 16 17 18 18 19 20 21 22 22 22 22 23 24 24 24 25 27 28 29 30 32 32 33 34 35 36 37 37 38 39 39 40 39 40 40 41 41
9 9 10 11 12 13 15 16 17 17 18 19 20 21 22 22 23 24 25 25 26 27 28 30 31 31 32 33 35 36 37 37 39 40 40 41 41 41 41 42 43 42 42
12 12 12 12 13 14 15 16 17 19 19 19 20 21 21 21 23 24 26 27 28 29 30 31 31 32 33 34 35 36 37 38 39 40 41 41 42 43 43 44 44 44 44
14 14 14 14 14 14 15 16 17 18 19 19 19 21 22 23 23 25 27 28 29 30 31 32 33 35 35 36 37 38 40 40 41 42 42 43 44 45 46 46 46 47 47
16 17 17 17 17 17 18 18 19 19 21 21 21 22 23 25 26 28 29 30 31 32 33 33 34 35 36 38 39 40 41 43 44 45 45 46 47 47 48 48 49 49 48
19 19 19 19 19 19 19 20 20 21 22 24 25 25 26 27 29 30 31 32 33 34 34 35 36 38 40 41 42 43 44 45 46 48 49 49 49 49 49 50 51 51 51
21 21 20 21 21 21 21 22 22 23 24 26 27 28 29 30 30 31 32 33 35 36 37 38 39 41 42 44 45 46 47 48 49 50 51 52 53 54 54 54 54 54 54
22 22 23 24 23 22 23 24 25 26 27 28 29 29 30 31 32 33 34 36 37 39 40 42 43 44 46 47 48 49 51 52 53 54 55 56 56 57 56 57 57 57 57
25 25 26 27 26 26 26 26 26 28 29 29 30 31 32 33 34 36 37 39 41 42 44 45 47 48 49 51 52 53 54 56 57 58 59 59 60 60 59 59 59 58 58
27 27 28 28 28 27 27 27 27 29 30 31 32 33 34 35 37 38 40 41 43 45 47 49 50 52 53 54 55 56 57 58 59 59 60 60 61 61 61 61 60 60 59
29 29 28 28 28 28 28 28 29 30 31 32 34 35 37 38 39 41 42 44 46 48 50 52 53 54 55 56 57 58 58 58 58 58 59 59 59 59 59 59 59 59 59
30 29 28 27 28 28 29 30 31 32 32 33 35 37 39 41 42 44 46 48 50 51 53 54 55 56 56 57 57 58 58 57 57 57 57 57 57 56 56 55 55 55 54
29 28 28 28 28 29 30 31 31 32 33 35 37 39 42 44 46 47 49 50 52 53 54 55 55 55 56 56 55 55 55 54 54 53 53 52 52 52 52 51 51 50 49
27 27 28 28 28 29 30 31 33 34 35 36 39 41 43 45 47 48 50 51 52 53 53 54 54 53 53 52 52 51 51 50 49 49 48 47 47 46 46 46 45 44 44
26 26 27 27 28 29 31 33 34 35 37 39 41 43 45 47 48 49 50 50 51 51 51 50 50 49 49 48 47 47 46 45 44 44 43 43 42 42 42 41 41 40 40
24 25 25 27 28 30 32 34 36 38 39 41 43 45 46 47 48 48 48 48 48 48 47 47 46 46 45 44 44 43 42 41 41 41 40 40 39 39 38 37 36 35 35
22 24 25 28 30 32 34 36 39 40 42 43 45 46 46 46 46 46 46 46 45 45 44 44 43 42 42 41 40 39 39 38 38 38 37 37 36 35 33 32 32 31 30
25 27 29 31 33 35 37 39 40 42 43 44 45 44 43 44 44 44 44 43 43 42 42 41 40 39 39 38 38 37 37 36 36 35 34 32 31 30 29 28 27 26 26
27 29 31 33 35 37 39 40 41 42 42 42 42 42 41 41 41 41 41 41 40 39 39 38 38 37 37 36 35 34 33 33 32 31 30 30 29 27 27 26 25 24 23
30 32 34 35 37 38 39 40 40 41 40 40 40 39 39 39 39 38 38 37 37 36 36 36 36 35 35 34 33 32 31 30 30 29 28 27 26 25 24 23 22 22 20
32 34 35 36 38 38 39 39 39 39 38 38 38 37 37 36 36 35 35 35 35 35 35 35 34 33 32 32 31 30 29 29 28 27 26 25 24 23 22 21 21 20 19
33 35 36 36 37 36 36 37 37 36 36 35 34 34 34 34 33 33 33 33 34 33 33 32 31 31 30 30 29 29 28 27 27 25 24 24 23 22 21 21 20 19 19

GEFSGL_500_meanwind_120.txt.gz
Wind_Speed
6 8 12 13 14 16 17 17 17 17 17 17 17 17 17 18 19 19 19 19 19 19 20 20 21 21 21 22 21 21 21 21 21 22 22 22 22 22 23 23 23 24 25
6 8 10 12 14 16 17 17 18 17 18 18 17 18 19 19 20 20 20 21 21 21 21 22 22 23 23 24 24 25 24 24 25 25 25 25 25 26 26 26 27 28 29
6 8 10 11 14 16 16 17 18 19 19 19 19 19 19 20 21 21 22 22 22 23 23 23 24 24 24 25 26 27 27 27 28 28 28 29 29 29 29 30 31 32 33
6 7 9 11 13 16 17 18 18 19 20 21 20 19 20 20 21 22 23 23 23 23 23 23 24 25 26 26 27 28 28 29 30 30 31 32 32 33 34 35 35 35 36
7 7 8 10 12 13 15 17 18 18 19 20 20 20 20 21 22 23 23 23 23 23 23 24 24 24 25 26 27 28 29 30 30 31 32 33 34 35 36 36 37 38 38
9 9 9 11 12 13 14 17 19 19 19 20 20 20 20 21 21 21 22 22 22 23 24 25 25 27 28 28 29 30 31 32 33 34 34 35 36 37 38 39 40 40 40
10 10 10 10 12 13 13 15 17 18 18 19 20 20 20 21 21 21 22 23 24 25 26 27 27 28 29 31 32 32 33 34 35 36 37 38 39 40 41 42 43 44 44
11 11 12 12 12 13 14 15 17 19 19 19 20 20 21 21 21 22 23 24 26 26 27 29 29 30 31 32 33 34 35 36 37 38 39 41 42 43 44 45 46 47 48
13 13 13 14 14 15 15 16 16 16 18 19 19 21 22 22 22 23 24 25 26 28 29 30 30 32 33 34 34 36 37 39 40 41 43 45 46 47 48 49 50 51 52
16 16 16 16 16 16 17 17 17 17 17 19 20 21 22 23 24 25 26 27 28 29 30 31 32 33 35 36 37 39 40 42 43 45 47 48 49 51 52 53 54 55 56
18 18 18 18 18 18 19 19 19 20 20 21 23 24 25 25 26 26 27 28 29 31 32 33 35 36 38 39 40 42 43 45 46 48 49 51 53 55 56 57 58 59 60
20 20 20 20 20 20 21 21 21 22 24 24 26 26 26 26 28 29 29 30 31 33 34 36 37 39 41 42 44 45 47 49 50 52 54 56 57 58 59 61 62 62 63
21 20 20 21 22 21 22 22 23 24 25 25 26 26 28 29 29 30 31 33 34 36 37 39 41 43 44 46 48 49 51 52 54 55 57 58 59 60 61 61 62 62 63
21 21 22 22 23 22 23 23 23 24 25 26 27 28 29 30 31 32 34 35 37 38 40 42 44 46 48 49 50 52 53 54 56 57 58 59 60 61 61 61 61 61 61
23 23 23 24 24 24 24 24 25 26 26 27 28 29 31 31 32 34 36 38 39 41 43 45 46 48 49 51 52 53 54 54 55 55 56 57 57 57 57 57 57 57 56
25 24 24 24 24 25 25 25 26 26 27 29 30 31 32 33 34 36 38 40 42 43 45 46 47 48 50 51 52 52 52 52 53 53 52 52 52 52 52 52 52 51 51
24 24 24 24 24 24 24 25 27 27 29 30 31 31 32 34 36 38 40 42 44 45 46 47 48 48 49 49 50 50 50 51 51 50 50 49 49 48 47 46 46 45 45
23 24 23 23 23 24 25 26 27 28 29 31 32 33 34 36 38 40 41 43 44 45 46 46 46 47 48 48 48 48 49 48 48 47 47 46 45 44 43 42 42 42 41
22 22 22 23 24 25 25 26 27 29 30 31 32 33 36 38 40 41 43 43 44 45 45 45 46 46 46 46 46 46 46 45 44 44 43 43 42 41 40 39 38 38 37
21 22 23 24 25 25 26 26 27 29 30 32 34 36 38 40 41 42 43 43 43 44 44 44 44 44 44 43 43 43 43 42 42 41 41 39 38 37 36 35 34 34 33
21 22 23 24 25 25 26 27 28 30 32 34 36 38 39 40 41 42 42 43 43 43 43 42 42 41 41 41 41 41 40 40 39 38 37 36 35 34 33 32 31 30 29
20 22 23 23 24 25 26 28 30 32 34 36 37 38 40 41 41 42 41 41 41 40 40 39 38 39 39 39 39 38 38 37 36 35 34 34 33 32 31 30 29 28 27
20 21 22 24 25 27 29 31 32 34 36 37 38 39 39 39 40 40 39 38 37 37 37 37 37 37 37 37 36 36 35 34 34 33 32 31 30 29 28 27 27 26 25
20 22 24 25 27 29 31 33 34 35 36 37 37 38 37 37 37 36 36 35 34 34 35 35 35 35 35 35 35 34 33 32 32 31 30 29 28 28 27 26 25 24 23
22 24 25 27 29 31 32 33 33 34 35 35 35 35 34 34 33 33 33 33 32 32 33 33 33 33 33 33 33 32 32 31 30 29 28 28 27 27 25 24 24 23 23
24 26 27 28 30 31 31 32 32 32 32 32 32 32 32 31 31 31 31 30 30 31 31 31 31 31 31 31 31 31 30 29 29 28 27 26 26 25 24 23 23 22 22

GEFSGL_500_meanwind_126.txt.gz
Wind_Speed
7 9 10 12 14 15 16 16 16 17 17 17 17 17 18 18 19 19 19 20 20 20 20 21 22 22 22 23 22 22 23 23 24 25 25 26 26 26 26 27 27 28 28
8 9 11 12 13 14 16 16 16 17 17 18 18 19 20 20 20 20 21 21 22 23 23 23 24 24 24 24 25 25 25 26 26 27 28 28 29 29 30 31 31 31 32
8 9 11 12 12 14 16 17 18 18 18 19 20 21 22 22 21 22 22 23 24 24 24 25 25 26 26 26 27 27 27 28 28 29 30 30 31 32 33 34 35 35 35
9 9 10 11 13 14 15 16 18 19 20 21 21 21 22 23 22 22 23 23 24 25 26 26 27 27 28 28 28 28 28 28 29 30 32 33 34 34 35 35 37 38 39
9 10 10 11 13 14 15 16 17 19 20 22 22 22 23 23 24 24 24 25 25 25 26 27 28 28 28 28 28 29 30 31 31 32 33 34 35 36 36 37 38 40 41
10 11 11 12 13 14 15 16 17 18 19 21 22 22 23 24 24 25 26 26 26 27 27 28 28 29 28 28 29 31 32 33 34 34 35 36 37 38 39 40 40 41 43
11 12 12 12 12 13 14 16 17 18 19 20 22 23 24 24 25 25 24 25 27 28 28 28 29 30 30 31 32 34 34 35 36 37 38 39 40 42 42 43 44 46 47
13 13 13 13 13 14 14 14 15 18 20 20 21 23 24 23 23 24 25 26 27 28 29 29 30 31 32 33 34 35 35 37 38 39 40 42 43 44 46 47 48 50 51
14 14 14 14 14 14 15 15 16 17 18 19 19 22 23 24 25 26 27 28 29 30 30 31 31 33 34 35 36 38 39 40 40 42 43 45 47 48 49 51 52 54 55
16 16 16 16 16 15 16 17 18 18 18 19 20 21 23 24 24 26 27 28 29 30 31 32 33 34 35 37 38 39 41 42 44 45 47 48 50 52 53 55 56 57 59
19 19 19 18 18 18 18 18 19 19 19 20 21 21 22 24 25 26 27 28 29 30 32 33 35 36 38 39 40 42 43 45 47 49 50 52 54 55 57 58 59 61 62
21 21 21 21 20 20 20 21 21 20 20 21 22 23 24 24 25 27 29 30 32 32 34 36 37 38 40 41 42 44 46 48 50 52 54 55 57 58 59 61 62 63 64
23 23 22 22 22 22 22 21 21 22 23 23 24 25 26 26 28 28 30 32 33 34 36 37 38 40 42 43 45 47 49 51 53 55 56 57 58 59 59 60 61 62 63
24 23 23 22 22 23 23 23 24 25 25 25 26 26 27 28 30 31 33 33 34 37 39 39 40 42 44 46 48 50 51 53 54 55 56 56 57 57 58 59 60 61 62
23 23 22 22 22 23 24 25 26 26 26 27 27 28 29 30 32 33 35 36 38 39 40 41 42 44 46 47 49 50 51 52 53 54 55 55 55 56 57 58 58 59 59
24 23 23 23 24 25 26 27 27 27 27 27 28 29 30 31 33 34 35 36 38 39 41 42 44 45 47 48 49 51 51 52 53 53 54 54 55 56 57 56 55 55 54
23 23 23 24 24 25 26 26 26 27 27 27 28 30 31 32 33 35 36 37 39 40 41 43 44 46 47 48 49 50 51 51 52 53 53 53 54 53 53 52 51 50 50
23 23 23 24 24 24 25 26 26 27 27 29 29 30 31 33 34 36 38 39 40 40 42 43 44 46 47 48 49 50 50 50 50 50 50 50 50 49 48 48 47 46 45
23 24 24 24 24 26 26 26 27 28 29 30 31 32 33 34 36 37 38 39 40 41 43 44 45 46 46 47 47 47 47 47 47 47 46 46 45 45 44 43 42 41 40
23 23 23 24 25 26 26 26 27 28 30 31 32 33 34 35 36 37 39 40 41 41 42 43 43 43 43 43 43 43 43 43 43 43 42 42 41 41 39 38 38 37 36
22 22 22 23 23 24 26 27 29 30 30 32 33 33 34 35 36 37 39 39 40 40 40 40 40 40 39 40 40 40 40 40 39 39 39 39 38 37 36 36 35 34 33
20 21 21 22 23 25 27 29 29 29 30 31 32 33 33 35 36 37 37 37 37 37 37 37 37 37 37 37 38 37 38 38 38 37 37 37 36 35 34 34 33 32 32
19 20 21 23 24 25 26 27 27 28 30 31 32 33 34 34 35 35 35 35 35 35 36 35 35 35 35 35 36 36 36 36 36 36 35 35 34 33 33 32 31 31 30
18 20 21 22 23 24 26 27 28 29 30 31 32 32 33 33 33 33 33 33 33 34 33 33 33 33 33 33 33 34 34 34 34 33 33 32 32 31 31 31 30 29 29
19 20 22 23 25 26 27 28 29 29 30 30 31 31 31 31 31 31 31 31 31 31 30 30 30 30 31 31 32 33 33 32 32 31 31 31 30 30 30 29 28 28 27
20 22 24 25 26 27 28 29 29 29 29 29 29 29 29 29 29 30 30 29 29 28 28 28 28 29 30 30 31 32 31 31 30 30 29 29 29 28 28 28 27 27 26

GEFSGL_500_meanwind_132.txt.gz
Wind_Speed
7 8 9 10 11 12 14 15 16 16 17 17 17 17 18 19 19 19 19 20 20 21 21 21 21 22 22 23 23 23 23 24 25 25 25 25 26 26 27 27 28 29 30
9 9 9 11 12 12 13 15 16 17 18 18 18 18 18 19 20 20 20 21 21 21 22 22 22 23 23 24 24 25 26 26 26 27 27 27 28 29 30 31 31 32 32
9 10 10 11 12 13 15 16 17 18 18 19 19 20 20 20 21 21 21 22 23 23 24 24 24 24 25 26 26 27 27 28 29 29 29 30 31 32 33 33 33 34 35
11 11 11 12 13 14 15 15 17 19 19 20 20 20 21 22 22 22 23 23 24 25 25 26 26 26 27 27 28 28 29 30 30 31 32 32 33 34 35 35 35 36 36
12 12 12 12 13 14 15 16 17 18 20 21 21 22 23 23 24 25 25 24 25 26 27 27 27 28 28 28 29 29 30 31 32 33 34 35 36 36 37 37 38 38 38
12 13 13 13 13 14 15 16 18 18 20 21 23 24 23 24 24 25 26 26 27 28 29 29 28 29 30 30 31 32 32 32 33 35 35 36 37 38 39 39 40 42 43
13 14 14 14 15 16 16 17 18 19 20 21 23 24 26 26 26 27 27 27 28 29 29 29 29 30 31 32 33 34 34 34 34 35 37 38 39 39 41 42 44 45 46
14 15 15 16 16 17 18 18 18 19 20 21 22 24 25 25 25 26 27 28 28 28 28 29 31 32 32 33 34 35 35 36 36 37 38 39 40 42 43 45 46 48 49
17 17 18 17 17 18 18 19 18 19 19 19 20 21 23 24 25 26 27 27 27 28 29 30 31 32 33 34 35 36 37 38 38 38 39 41 43 43 44 46 47 48 50
20 20 20 20 20 20 20 20 20 20 20 20 20 21 22 23 25 26 27 27 28 29 30 31 32 33 34 34 35 36 37 38 39 40 42 43 44 45 46 48 49 51 52
21 21 21 21 21 22 22 22 23 22 22 22 23 24 24 24 25 25 26 27 28 29 31 32 33 33 34 35 36 37 38 40 42 43 44 45 46 48 49 51 52 54 55
23 22 22 23 23 23 24 24 25 25 25 23 24 24 25 25 25 26 27 28 29 30 31 33 34 34 36 37 38 39 40 42 44 45 46 48 49 50 52 53 54 56 57
25 24 23 24 24 25 25 25 25 25 25 25 25 25 26 26 27 28 28 29 30 31 33 35 36 37 38 39 40 41 42 44 45 46 47 48 50 51 53 54 56 57 58
26 25 25 25 26 26 26 25 25 26 27 27 27 27 27 28 29 30 30 31 32 33 35 36 37 38 39 40 42 42 43 44 45 46 48 49 51 52 53 54 55 55 55
26 27 26 26 27 26 26 26 26 27 27 26 26 28 28 29 30 31 32 32 33 34 35 36 38 39 40 41 42 43 44 45 46 46 47 49 50 51 51 51 51 52 52
26 27 27 28 26 26 26 26 26 27 27 27 28 29 29 30 31 32 32 33 34 35 36 37 38 39 40 41 42 43 44 45 45 46 47 48 48 49 49 49 49 49 49
27 27 26 26 25 25 25 25 25 26 27 28 28 28 30 30 31 32 33 34 35 36 36 37 37 38 39 40 41 42 43 43 44 45 45 46 46 46 46 46 46 46 46
26 25 25 25 25 25 25 25 26 27 27 27 28 29 30 31 32 32 33 34 35 35 35 36 36 37 38 39 40 41 42 42 43 43 44 44 44 44 44 44 43 43 43
24 24 24 24 25 25 24 25 26 27 27 27 28 29 30 31 32 33 34 35 36 35 34 35 36 37 38 39 39 40 40 41 41 41 41 41 42 42 41 41 40 39 39
23 23 24 24 24 24 24 24 25 25 25 26 28 29 30 32 32 33 34 34 33 33 34 34 35 36 36 37 37 38 38 38 39 39 39 39 38 38 37 37 36 36 35
22 22 22 23 23 23 23 23 23 24 25 27 28 30 31 31 32 32 32 31 31 32 33 34 34 34 34 35 35 35 36 36 36 36 36 35 35 35 34 34 33 33 32
21 21 21 21 21 20 21 22 24 25 26 27 28 29 30 30 30 30 30 30 31 32 31 31 32 32 32 33 33 33 34 34 33 33 33 33 33 32 32 31 31 30 30
18 18 18 18 19 21 22 23 24 25 25 26 27 27 27 28 28 28 28 29 29 29 29 30 30 30 31 31 31 31 31 31 31 31 31 31 31 31 30 30 29 29 28
14 15 16 18 19 20 21 23 24 24 25 25 25 26 26 26 27 27 27 27 27 27 28 28 28 29 29 29 29 29 29 29 29 29 29 29 30 29 29 28 28 27 27
15 16 18 19 21 22 23 24 24 25 25 25 25 25 25 26 26 26 25 25 26 26 27 27 27 27 27 27 27 27 27 27 27 28 28 28 28 28 27 27 27 27 27
17 18 20 21 22 23 24 24 24 24 24 24 24 24 24 24 24 24 24 24 24 25 25 25 25 25 25 25 25 25 25 25 26 26 27 27 27 27 27 26 26 26 26

GEFSGL_500_meanwind_138.txt.gz
Wind_Speed
5 5 5 6 7 8 9 10 12 13 13 14 15 16 17 17 17 17 18 18 18 18 19 19 20 21 22 22 22 23 23 24 24 25 24 24 25 26 26 26 26 26 27
6 7 7 7 8 9 10 11 12 14 14 15 15 16 17 18 18 18 18 19 19 20 20 21 22 22 23 23 24 25 25 25 26 27 27 27 27 28 29 29 29 29 29
8 8 9 10 10 11 11 11 11 13 14 15 16 17 18 19 19 19 20 21 22 22 23 24 24 24 24 25 25 26 27 28 28 30 30 30 30 31 31 32 33 33 33
9 10 11 11 11 11 11 11 12 13 14 15 16 17 19 19 20 20 21 22 22 23 24 25 26 27 26 27 27 28 29 30 30 31 31 31 32 32 33 34 35 35 36
11 12 12 12 12 12 12 13 13 14 15 16 17 18 20 21 22 22 23 23 23 24 25 26 27 29 29 29 29 30 31 32 33 33 33 33 34 35 35 35 36 37 37
13 13 13 13 13 13 13 13 14 14 15 16 17 18 19 20 21 22 23 24 24 25 26 27 29 30 31 31 31 32 33 33 34 34 35 35 35 36 37 37 38 39 39
14 14 14 14 14 14 14 15 15 16 17 17 17 18 18 19 20 22 23 25 26 26 27 29 30 30 31 32 33 34 34 34 34 34 35 35 37 38 39 39 40 41 41
17 17 16 16 15 16 15 16 17 18 18 18 19 19 20 21 22 23 24 26 27 28 29 30 30 30 31 32 33 34 34 34 34 35 36 37 38 39 39 40 41 41 42
19 19 18 17 17 17 17 18 19 19 19 20 20 21 22 23 24 25 27 27 28 28 29 30 30 30 30 32 33 34 34 34 34 35 36 37 39 40 41 41 41 43 44
21 20 20 19 19 19 19 19 20 21 21 22 23 23 23 24 25 26 27 27 28 28 28 28 30 30 31 33 34 35 35 35 35 36 37 38 39 39 41 42 43 45 46
22 22 22 21 21 21 22 22 21 22 22 23 23 24 24 25 26 26 26 27 27 27 28 29 30 30 31 33 34 35 35 36 37 38 39 39 40 41 42 43 45 46 47
25 25 24 24 24 23 23 23 23 23 23 24 24 25 26 26 26 27 27 27 28 28 29 30 31 32 32 33 34 35 36 37 38 39 40 40 41 42 44 45 46 47 48
26 27 27 26 25 25 25 25 25 25 26 26 26 26 27 27 27 28 28 29 29 30 31 32 33 33 33 35 35 36 37 38 38 39 40 41 43 43 44 45 46 47 48
27 27 27 28 27 27 26 26 27 27 27 27 28 28 28 27 28 29 29 30 31 32 33 34 34 34 34 35 36 36 37 38 39 40 41 43 43 43 44 44 45 46 46
28 28 28 28 28 27 27 27 28 28 28 29 29 29 28 28 29 29 30 30 32 33 33 34 35 35 35 35 36 38 39 41 41 42 42 42 42 43 43 43 44 44 45
28 27 27 26 27 27 27 28 28 28 28 28 27 28 28 28 29 30 31 32 32 33 33 34 35 36 37 37 38 38 39 39 40 41 41 41 42 42 42 43 43 43 43
27 27 26 25 26 26 26 27 27 27 27 27 26 27 28 29 30 30 31 32 32 33 34 35 36 36 37 38 38 38 38 39 39 39 40 40 40 40 40 41 41 40 40
26 26 26 25 25 25 25 25 25 25 26 26 27 27 28 29 29 30 31 32 33 34 35 36 36 36 36 35 36 37 37 37 38 38 38 38 38 38 38 38 38 37 37
26 26 25 24 24 24 24 24 25 25 27 27 28 29 29 29 30 31 31 32 33 34 35 35 34 34 33 34 35 35 35 35 36 36 36 36 36 37 36 36 36 36 35
24 24 24 24 23 23 23 23 24 25 27 28 28 28 28 29 29 30 31 32 32 33 33 32 32 32 32 32 32 32 33 34 34 34 34 35 35 35 35 34 34 34 34
23 23 22 22 22 22 22 23 24 25 26 26 26 26 26 27 28 29 30 31 31 31 30 30 30 30 30 30 30 31 32 32 32 33 33 33 33 33 33 33 33 33 33
20 21 22 22 21 22 22 23 23 23 23 24 24 25 27 27 28 29 29 29 29 29 29 29 29 29 29 30 30 30 31 31 31 31 31 31 32 32 32 32 31 31 30
19 19 20 21 21 21 21 21 22 23 23 24 25 26 27 27 28 28 28 28 29 29 29 28 28 28 29 29 29 29 30 30 30 30 29 30 30 29 29 29 29 29 29
18 18 18 18 18 19 20 21 22 22 23 24 25 26 27 27 27 27 28 28 29 28 28 28 28 28 28 28 28 28 29 28 28 28 28 28 28 28 28 28 28 29 29
16 17 17 17 18 19 20 22 23 23 25 26 26 27 27 27 28 28 28 28 28 27 27 27 27 27 27 27 27 27 27 27 27 27 27 26 27 27 27 28 28 29 29
16 17 17 19 20 21 22 23 24 25 26 26 27 27 27 27 27 27 27 27 26 26 26 25 25 26 26 26 26 25 25 25 25 25 25 26 26 26 27 28 28 28 28

GEFSGL_500_meanwind_144.txt.gz
Wind_Speed
3 3 4 4 5 6 6 7 8 10 12 13 14 14 14 15 16 17 18 17 17 17 18 19 19 19 19 20 21 21 22 22 22 23 23 23 23 24 25 26 27 27 28
4 4 4 5 6 6 7 8 9 10 11 13 14 14 15 16 17 18 18 19 19 19 20 20 20 21 21 22 22 23 23 24 24 24 25 26 26 27 27 28 28 29 30
5 5 5 6 6 7 8 9 10 11 11 12 14 15 16 16 17 18 19 20 20 21 21 21 22 23 23 24 25 26 26 26 27 27 27 28 28 28 29 30 31 31 32
7 7 7 7 7 8 8 10 10 11 12 13 13 14 16 17 17 18 19 20 20 21 21 22 23 24 24 26 26 27 27 28 28 29 30 30 31 31 31 33 33 34 35
8 8 8 9 9 9 10 10 10 12 13 13 13 14 16 17 18 18 18 19 20 21 22 23 24 24 24 25 26 27 28 28 28 29 30 31 32 33 33 34 35 35 35
10 10 10 10 10 10 11 11 11 12 13 14 14 15 16 16 17 18 19 19 21 21 23 23 24 25 26 27 28 29 30 30 30 31 31 32 32 34 34 34 35 36 36
12 12 12 12 12 12 12 11 12 13 14 15 16 16 17 17 18 19 20 20 21 22 23 25 25 26 28 29 30 30 31 31 32 32 32 32 33 34 35 35 36 36 37
14 14 14 14 14 14 14 13 13 13 14 15 17 17 18 18 19 20 21 21 22 22 23 24 26 27 27 28 30 30 31 31 32 33 33 33 35 36 36 37 37 38 39
15 16 15 15 15 16 15 15 15 15 16 16 18 19 20 20 21 21 21 21 22 23 24 26 27 27 27 29 30 30 30 31 32 33 33 33 34 35 36 36 37 39 40
17 17 18 17 17 17 17 18 17 17 18 18 19 20 20 21 21 22 22 23 23 24 25 26 26 27 28 29 30 30 31 31 31 32 32 33 34 36 36 37 38 40 41
19 20 20 19 19 19 19 19 19 19 19 20 20 20 21 21 22 23 24 24 24 26 26 26 27 27 28 29 30 31 32 32 32 32 33 34 35 36 37 39 40 41 42
21 21 21 21 21 21 21 21 21 21 21 21 21 22 22 22 23 23 24 25 26 26 27 27 27 28 29 31 32 33 33 33 34 34 35 36 37 38 40 41 41 42 43
22 22 22 22 23 23 23 22 23 23 23 24 24 24 24 24 25 25 26 26 26 27 27 27 29 30 31 32 33 33 34 35 35 36 36 37 39 39 40 41 41 42 43
24 23 23 23 24 24 23 23 23 24 25 25 25 24 24 25 25 25 26 25 26 26 27 29 30 31 31 32 33 33 33 34 35 37 38 38 39 39 40 41 41 41 42
25 25 24 24 24 24 24 23 23 23 24 24 24 24 25 25 25 25 26 26 26 26 27 29 30 31 31 31 32 33 34 35 35 36 37 38 38 38 39 39 40 40 40
25 24 25 24 24 23 23 23 23 24 24 24 24 24 24 24 24 25 25 26 27 28 29 30 30 31 32 33 33 34 35 35 36 36 37 37 37 38 38 38 38 38 38
25 25 25 25 24 24 24 24 24 24 24 23 23 23 24 24 25 26 27 27 28 29 30 31 32 32 32 33 34 34 35 35 36 36 36 36 36 36 37 37 37 36 36
26 26 26 26 25 25 25 25 25 24 24 24 23 24 25 26 27 28 28 29 30 30 31 31 31 32 32 32 33 33 34 34 34 34 34 35 35 35 35 34 34 34 34
25 25 25 25 25 25 25 25 25 24 24 24 24 26 26 27 28 28 29 29 29 29 30 31 31 31 31 31 32 32 33 33 32 32 32 32 32 32 32 32 32 32 32
23 23 24 24 24 24 24 23 23 23 23 25 26 26 26 27 27 27 27 28 29 29 29 30 30 30 30 30 31 31 31 31 31 31 31 31 31 31 31 31 31 31 31
22 23 22 22 22 22 22 22 22 23 24 25 25 25 25 26 26 26 27 27 27 28 28 29 29 30 30 30 30 30 30 29 30 30 30 30 30 30 30 30 30 30 30
20 21 21 21 21 21 22 22 22 23 24 24 24 24 25 25 26 26 27 27 28 28 29 29 30 30 30 30 29 29 29 29 29 29 29 29 29 29 29 29 29 29 29
20 20 20 20 20 20 20 21 22 23 24 24 25 25 25 26 26 26 27 28 28 28 29 29 29 29 29 29 28 28 28 27 28 28 28 28 27 27 27 28 28 28 28
19 19 19 19 19 19 20 21 22 23 24 24 24 25 25 26 27 28 28 28 29 29 29 29 29 28 28 28 27 27 26 26 27 27 26 26 26 26 26 26 26 26 26
17 17 17 18 19 20 21 22 22 23 23 23 24 25 26 26 27 28 28 29 29 29 29 28 28 27 26 26 25 25 25 25 25 25 25 25 25 25 25 25 25 25 25
16 17 18 19 20 21 22 22 22 23 23 24 25 25 26 27 27 28 28 28 29 28 27 26 26 25 25 24 24 24 24 24 24 23 24 24 24 25 25 25 25 25 25

GEFSGL_500_meanwind_150.txt.gz
Wind_Speed
5 5 5 6 6 7 8 9 10 11 12 12 14 14 15 15 16 17 18 19 19 20 20 20 21 22 22 22 23 23 24 24 25 25 26 27 27 28 29 29 29 30 31
6 6 6 6 7 7 7 8 9 10 12 13 14 15 16 16 17 17 19 20 20 20 21 21 22 23 23 24 24 24 25 26 27 27 28 29 29 30 31 32 32 32 33
7 7 7 8 8 8 8 9 10 11 12 13 14 16 17 17 18 19 20 20 20 21 22 23 23 23 24 25 25 25 26 27 28 29 30 31 31 32 32 33 34 34 35
8 7 8 8 9 9 10 10 10 11 12 13 15 15 17 18 18 19 19 19 21 21 22 23 25 25 25 26 26 27 28 29 30 31 32 32 32 33 33 34 35 36 37
8 8 9 9 10 10 11 11 12 12 13 14 15 16 17 18 19 20 20 21 21 22 23 23 24 25 26 27 27 28 29 29 31 32 32 33 33 34 35 36 37 38 39
11 10 10 11 11 11 12 13 14 14 15 15 16 17 18 19 20 20 21 22 22 23 23 24 25 26 26 27 28 29 29 30 31 32 33 33 34 35 36 37 38 39 39
12 12 12 12 12 13 14 15 16 16 16 16 17 18 19 19 20 22 23 23 23 24 24 25 26 27 27 28 28 29 30 30 32 33 34 34 34 35 37 38 38 38 38
14 13 13 13 14 15 15 16 16 17 17 18 19 19 20 21 22 22 23 24 24 25 25 26 27 27 28 29 29 30 31 32 33 33 34 35 35 36 36 38 39 39 39
15 16 15 15 16 16 17 17 17 18 18 19 20 21 21 22 22 23 24 25 26 26 27 28 28 29 29 30 30 31 32 33 33 33 34 35 36 36 37 38 38 39 40
17 17 17 17 17 18 18 19 19 19 20 20 21 22 23 24 24 25 26 27 27 28 29 30 30 30 31 31 31 32 32 33 33 34 35 36 36 37 38 39 39 40 41
18 18 18 19 19 20 20 20 20 21 22 23 23 24 24 25 26 26 27 28 28 29 29 29 30 30 30 31 32 32 33 34 35 35 36 36 37 38 38 39 39 39 40
20 20 21 21 22 22 22 22 22 23 23 23 24 25 25 26 26 27 28 28 29 29 29 29 29 30 30 31 32 33 34 35 36 36 37 37 38 38 39 39 40 41 41
22 22 23 23 24 24 24 23 23 23 24 25 26 26 27 27 27 28 29 29 29 29 29 29 29 30 31 32 33 34 35 36 36 37 37 38 38 39 40 41 41 41 42
24 24 24 24 25 25 24 24 24 25 26 27 27 27 28 28 29 29 29 29 29 29 29 30 30 31 32 33 34 35 36 36 36 37 37 38 38 39 40 41 41 41 41
25 25 25 25 25 25 25 25 26 26 27 28 28 27 28 28 29 29 29 29 28 29 30 30 31 32 33 34 35 36 35 35 36 37 37 37 38 39 40 40 40 39 39
26 26 26 27 27 27 27 27 27 28 29 30 29 29 29 29 30 29 29 29 30 30 31 32 33 34 34 35 35 35 35 35 36 37 37 37 37 37 38 38 38 38 37
27 27 28 28 28 28 28 29 29 29 29 29 29 29 29 29 29 30 30 31 31 31 32 33 33 34 34 34 34 34 34 34 35 36 36 36 36 37 37 37 37 36 36
27 28 28 29 29 29 28 28 28 28 28 28 28 29 29 29 30 30 30 31 31 31 32 32 33 33 33 33 33 33 34 34 34 35 35 35 35 35 35 35 35 35 35
26 27 27 27 27 27 27 27 28 28 27 27 28 28 28 29 29 30 31 31 31 31 31 31 32 32 32 32 32 33 33 33 33 34 34 34 34 34 34 34 34 34 33
26 25 25 26 26 26 26 26 27 27 27 27 28 28 28 29 30 31 32 32 31 30 30 30 31 31 32 32 33 33 33 33 32 32 32 33 33 33 33 33 32 32 32
25 25 26 26 26 26 26 26 27 27 27 28 28 29 29 29 30 31 31 31 30 30 30 30 31 31 32 32 33 32 32 32 31 31 31 31 32 32 32 31 30 30 30
25 25 25 25 25 26 26 27 27 27 27 27 27 28 29 30 30 30 30 30 30 30 30 30 31 31 32 32 32 32 31 31 31 31 31 31 31 31 30 30 29 29 29
24 24 24 24 25 25 25 25 25 25 26 26 27 27 28 28 28 28 28 29 30 30 30 30 30 31 31 31 31 30 30 30 30 30 30 30 29 29 29 28 28 28 28
23 23 23 24 24 24 23 23 24 24 25 26 26 27 27 27 27 27 27 28 28 29 29 29 30 30 30 30 30 29 29 28 28 29 28 28 27 27 27 26 27 27 27
21 22 22 23 22 22 22 22 23 23 24 24 24 24 25 25 26 26 27 27 28 28 28 28 29 28 28 28 27 27 27 27 27 27 26 26 25 25 25 26 26 26 26
20 20 21 21 21 21 21 22 22 23 22 23 23 24 25 26 26 26 27 27 28 28 28 28 28 28 27 27 26 25 25 25 25 25 25 25 25 25 25 25 25 26 26